<?xml version="1.0" encoding="UTF-8"?>
<gpx version="1.1" creator="2bulu-scraper" xmlns="http://www.topografix.com/GPX/1/1">
  <metadata><name>:51_1+ 乐山夹江县天仙关_1（合并）+ 乐山夹江县天仙关_2（合并）</name><desc>source: 2bulu.com trackId=86561655; exported 2026-09-01T16:17:51.744Z</desc>
    <bounds minlat="29.732284" minlon="103.521327" maxlat="29.754955" maxlon="103.550069"/>
    <link href="https://www.2bulu.com/track/t-avWXtGFjLZzp%252FR2KBg5Tzw%253D%253D.htm"><text>2bulu 源页面</text></link>
  </metadata>
  <wpt lat="29.734147" lon="103.546536"><ele>394</ele><name></name></wpt>
  <wpt lat="29.754683" lon="103.532907"><ele>384</ele><name></name></wpt>
  <wpt lat="29.733203" lon="103.543845"><ele>426</ele><name></name></wpt>
  <wpt lat="29.734503" lon="103.542443"><ele>447</ele><name></name></wpt>
  <wpt lat="29.734946" lon="103.540474"><ele>465</ele><name></name></wpt>
  <wpt lat="29.73545" lon="103.539933"><ele>477</ele><name></name></wpt>
  <wpt lat="29.737536" lon="103.538926"><ele>509</ele><name></name></wpt>
  <wpt lat="29.738217" lon="103.538789"><ele>528</ele><name></name></wpt>
  <wpt lat="29.737876" lon="103.537635"><ele>546</ele><name></name></wpt>
  <wpt lat="29.73909" lon="103.536207"><ele>569</ele><name></name></wpt>
  <wpt lat="29.739349" lon="103.535458"><ele>576</ele><name>户外徒步天仙关</name></wpt>
  <wpt lat="29.739143" lon="103.533961"><ele>604</ele><name></name></wpt>
  <wpt lat="29.738449" lon="103.533254"><ele>612</ele><name></name></wpt>
  <wpt lat="29.738287" lon="103.530605"><ele>640</ele><name></name></wpt>
  <wpt lat="29.738335" lon="103.530492"><ele>641</ele><name></name></wpt>
  <wpt lat="29.739044" lon="103.529339"><ele>657</ele><name></name></wpt>
  <wpt lat="29.740075" lon="103.529582"><ele>669</ele><name></name></wpt>
  <wpt lat="29.741031" lon="103.528543"><ele>671</ele><name></name></wpt>
  <wpt lat="29.741081" lon="103.528549"><ele>673</ele><name></name></wpt>
  <wpt lat="29.741655" lon="103.529025"><ele>680</ele><name></name></wpt>
  <wpt lat="29.741971" lon="103.529453"><ele>684</ele><name></name></wpt>
  <wpt lat="29.742133" lon="103.529339"><ele>691</ele><name></name></wpt>
  <wpt lat="29.742232" lon="103.528805"><ele>710</ele><name></name></wpt>
  <wpt lat="29.743779" lon="103.527182"><ele>706</ele><name></name></wpt>
  <wpt lat="29.744363" lon="103.526168"><ele>685</ele><name></name></wpt>
  <wpt lat="29.744678" lon="103.525786"><ele>684</ele><name></name></wpt>
  <wpt lat="29.744724" lon="103.525858"><ele>681</ele><name></name></wpt>
  <wpt lat="29.744813" lon="103.525907"><ele>679</ele><name></name></wpt>
  <wpt lat="29.745408" lon="103.526188"><ele>679</ele><name></name></wpt>
  <wpt lat="29.745954" lon="103.525755"><ele>691</ele><name></name></wpt>
  <wpt lat="29.745502" lon="103.526003"><ele>692</ele><name></name></wpt>
  <wpt lat="29.745575" lon="103.525932"><ele>695</ele><name></name></wpt>
  <wpt lat="29.745763" lon="103.525297"><ele>713</ele><name></name></wpt>
  <wpt lat="29.746559" lon="103.524458"><ele>731</ele><name></name></wpt>
  <wpt lat="29.747221" lon="103.523848"><ele>758</ele><name></name></wpt>
  <wpt lat="29.748998" lon="103.524068"><ele>764</ele><name></name></wpt>
  <wpt lat="29.750276" lon="103.523157"><ele>736</ele><name></name></wpt>
  <wpt lat="29.750316" lon="103.523134"><ele>736</ele><name></name></wpt>
  <wpt lat="29.750126" lon="103.522844"><ele>720</ele><name></name></wpt>
  <wpt lat="29.749893" lon="103.522511"><ele>700</ele><name></name></wpt>
  <wpt lat="29.749869" lon="103.522256"><ele>677</ele><name></name></wpt>
  <wpt lat="29.750278" lon="103.521481"><ele>671</ele><name></name></wpt>
  <wpt lat="29.752307" lon="103.52158"><ele>678</ele><name></name></wpt>
  <wpt lat="29.752361" lon="103.521826"><ele>670</ele><name></name></wpt>
  <wpt lat="29.752323" lon="103.521888"><ele>668</ele><name></name></wpt>
  <wpt lat="29.752568" lon="103.521797"><ele>650</ele><name></name></wpt>
  <wpt lat="29.75402" lon="103.522092"><ele>574</ele><name></name></wpt>
  <wpt lat="29.754467" lon="103.524346"><ele>547</ele><name></name></wpt>
  <wpt lat="29.754319" lon="103.527062"><ele>521</ele><name></name></wpt>
  <wpt lat="29.754558" lon="103.532797"><ele>432</ele><name></name></wpt>
  <trk><name>:51_1+ 乐山夹江县天仙关_1（合并）+ 乐山夹江县天仙关_2（合并）</name>
      <trkseg>
        <trkpt lat="29.732505" lon="103.549914"><ele>383.91</ele><time></time></trkpt>
        <trkpt lat="29.732554" lon="103.549837"><ele>383.91</ele><time></time></trkpt>
        <trkpt lat="29.732629" lon="103.549759"><ele>383.98</ele><time></time></trkpt>
        <trkpt lat="29.732701" lon="103.549671"><ele>383.67</ele><time></time></trkpt>
        <trkpt lat="29.732743" lon="103.549566"><ele>384.71</ele><time></time></trkpt>
        <trkpt lat="29.732728" lon="103.549455"><ele>387.33</ele><time></time></trkpt>
        <trkpt lat="29.732668" lon="103.54936"><ele>386.59</ele><time></time></trkpt>
        <trkpt lat="29.732597" lon="103.549275"><ele>385.31</ele><time></time></trkpt>
        <trkpt lat="29.732549" lon="103.549177"><ele>383.74</ele><time></time></trkpt>
        <trkpt lat="29.732507" lon="103.54907"><ele>382.78</ele><time></time></trkpt>
        <trkpt lat="29.732465" lon="103.548961"><ele>382.13</ele><time></time></trkpt>
        <trkpt lat="29.732446" lon="103.548849"><ele>382.1</ele><time></time></trkpt>
        <trkpt lat="29.732418" lon="103.548742"><ele>382.98</ele><time></time></trkpt>
        <trkpt lat="29.732408" lon="103.548635"><ele>384.22</ele><time></time></trkpt>
        <trkpt lat="29.732381" lon="103.548531"><ele>384.55</ele><time></time></trkpt>
        <trkpt lat="29.732357" lon="103.548427"><ele>384.77</ele><time></time></trkpt>
        <trkpt lat="29.732347" lon="103.548322"><ele>384.81</ele><time></time></trkpt>
        <trkpt lat="29.732348" lon="103.548213"><ele>385.14</ele><time></time></trkpt>
        <trkpt lat="29.732393" lon="103.548115"><ele>385.52</ele><time></time></trkpt>
        <trkpt lat="29.732427" lon="103.548008"><ele>385.49</ele><time></time></trkpt>
        <trkpt lat="29.732419" lon="103.547906"><ele>385.43</ele><time></time></trkpt>
        <trkpt lat="29.732398" lon="103.547789"><ele>384.34</ele><time></time></trkpt>
        <trkpt lat="29.732386" lon="103.547693"><ele>383.48</ele><time></time></trkpt>
        <trkpt lat="29.73237" lon="103.547589"><ele>382.51</ele><time></time></trkpt>
        <trkpt lat="29.732407" lon="103.547481"><ele>380.72</ele><time></time></trkpt>
        <trkpt lat="29.732452" lon="103.547367"><ele>381.79</ele><time></time></trkpt>
        <trkpt lat="29.732504" lon="103.547271"><ele>383.76</ele><time></time></trkpt>
        <trkpt lat="29.732553" lon="103.547164"><ele>385.02</ele><time></time></trkpt>
        <trkpt lat="29.732558" lon="103.547046"><ele>386.03</ele><time></time></trkpt>
        <trkpt lat="29.732545" lon="103.54697"><ele>386.66</ele><time></time></trkpt>
        <trkpt lat="29.732526" lon="103.546879"><ele>385.9</ele><time></time></trkpt>
        <trkpt lat="29.732503" lon="103.546774"><ele>384.76</ele><time></time></trkpt>
        <trkpt lat="29.732464" lon="103.546661"><ele>383.55</ele><time></time></trkpt>
        <trkpt lat="29.732422" lon="103.546551"><ele>383.22</ele><time></time></trkpt>
        <trkpt lat="29.73242" lon="103.546438"><ele>383.56</ele><time></time></trkpt>
        <trkpt lat="29.732461" lon="103.546344"><ele>383.36</ele><time></time></trkpt>
        <trkpt lat="29.732554" lon="103.546339"><ele>383.71</ele><time></time></trkpt>
        <trkpt lat="29.732609" lon="103.546357"><ele>383.8</ele><time></time></trkpt>
        <trkpt lat="29.732692" lon="103.546395"><ele>383.45</ele><time></time></trkpt>
        <trkpt lat="29.732785" lon="103.546412"><ele>383.23</ele><time></time></trkpt>
        <trkpt lat="29.732877" lon="103.546442"><ele>383.31</ele><time></time></trkpt>
        <trkpt lat="29.73298" lon="103.546459"><ele>383.53</ele><time></time></trkpt>
        <trkpt lat="29.733075" lon="103.546481"><ele>384.26</ele><time></time></trkpt>
        <trkpt lat="29.733172" lon="103.54648"><ele>385.05</ele><time></time></trkpt>
        <trkpt lat="29.733257" lon="103.546512"><ele>386.67</ele><time></time></trkpt>
        <trkpt lat="29.733358" lon="103.546534"><ele>386.93</ele><time></time></trkpt>
        <trkpt lat="29.733458" lon="103.546562"><ele>387.89</ele><time></time></trkpt>
        <trkpt lat="29.733564" lon="103.546594"><ele>389.12</ele><time></time></trkpt>
        <trkpt lat="29.733673" lon="103.546622"><ele>389.88</ele><time></time></trkpt>
        <trkpt lat="29.733771" lon="103.546628"><ele>391.03</ele><time></time></trkpt>
        <trkpt lat="29.733868" lon="103.546622"><ele>392.65</ele><time></time></trkpt>
        <trkpt lat="29.733959" lon="103.546592"><ele>393.08</ele><time></time></trkpt>
        <trkpt lat="29.734059" lon="103.546578"><ele>392.96</ele><time></time></trkpt>
        <trkpt lat="29.734147" lon="103.546536"><ele>392.03</ele><time></time></trkpt>
        <trkpt lat="29.734186" lon="103.54644"><ele>392.88</ele><time></time></trkpt>
        <trkpt lat="29.734265" lon="103.546466"><ele>395.39</ele><time></time></trkpt>
        <trkpt lat="29.73432" lon="103.54654"><ele>397.98</ele><time></time></trkpt>
        <trkpt lat="29.734435" lon="103.546713"><ele>397.42</ele><time></time></trkpt>
        <trkpt lat="29.734517" lon="103.546845"><ele>395.52</ele><time></time></trkpt>
        <trkpt lat="29.734539" lon="103.54678"><ele>395.54</ele><time></time></trkpt>
        <trkpt lat="29.734586" lon="103.546676"><ele>396.08</ele><time></time></trkpt>
        <trkpt lat="29.73467" lon="103.546588"><ele>396.23</ele><time></time></trkpt>
        <trkpt lat="29.734776" lon="103.546545"><ele>395.8</ele><time></time></trkpt>
        <trkpt lat="29.734883" lon="103.546515"><ele>395.57</ele><time></time></trkpt>
        <trkpt lat="29.734983" lon="103.546527"><ele>396.22</ele><time></time></trkpt>
        <trkpt lat="29.735084" lon="103.546538"><ele>395.78</ele><time></time></trkpt>
        <trkpt lat="29.735179" lon="103.546547"><ele>395.8</ele><time></time></trkpt>
        <trkpt lat="29.735275" lon="103.546569"><ele>395.97</ele><time></time></trkpt>
        <trkpt lat="29.735366" lon="103.546591"><ele>396.23</ele><time></time></trkpt>
        <trkpt lat="29.735456" lon="103.546626"><ele>396.62</ele><time></time></trkpt>
        <trkpt lat="29.735542" lon="103.546664"><ele>395.89</ele><time></time></trkpt>
        <trkpt lat="29.735637" lon="103.546677"><ele>395.48</ele><time></time></trkpt>
        <trkpt lat="29.735735" lon="103.546687"><ele>396.22</ele><time></time></trkpt>
        <trkpt lat="29.735833" lon="103.546693"><ele>397.46</ele><time></time></trkpt>
        <trkpt lat="29.735941" lon="103.546688"><ele>397.74</ele><time></time></trkpt>
        <trkpt lat="29.736038" lon="103.54666"><ele>397.99</ele><time></time></trkpt>
        <trkpt lat="29.736141" lon="103.546634"><ele>397.33</ele><time></time></trkpt>
        <trkpt lat="29.736247" lon="103.546632"><ele>396.36</ele><time></time></trkpt>
        <trkpt lat="29.736356" lon="103.546639"><ele>397.14</ele><time></time></trkpt>
        <trkpt lat="29.736438" lon="103.546641"><ele>397.02</ele><time></time></trkpt>
        <trkpt lat="29.736525" lon="103.546674"><ele>398.13</ele><time></time></trkpt>
        <trkpt lat="29.736617" lon="103.546677"><ele>397.7</ele><time></time></trkpt>
        <trkpt lat="29.736712" lon="103.546644"><ele>396.93</ele><time></time></trkpt>
        <trkpt lat="29.736815" lon="103.546607"><ele>397.18</ele><time></time></trkpt>
        <trkpt lat="29.736906" lon="103.546557"><ele>397.44</ele><time></time></trkpt>
        <trkpt lat="29.736987" lon="103.546475"><ele>397.44</ele><time></time></trkpt>
        <trkpt lat="29.737046" lon="103.546378"><ele>398.17</ele><time></time></trkpt>
        <trkpt lat="29.7371" lon="103.546275"><ele>398.68</ele><time></time></trkpt>
        <trkpt lat="29.73715" lon="103.546176"><ele>399.2</ele><time></time></trkpt>
        <trkpt lat="29.73719" lon="103.546067"><ele>399.65</ele><time></time></trkpt>
        <trkpt lat="29.737277" lon="103.546051"><ele>400.16</ele><time></time></trkpt>
        <trkpt lat="29.737361" lon="103.54601"><ele>397.09</ele><time></time></trkpt>
        <trkpt lat="29.737451" lon="103.545969"><ele>395.39</ele><time></time></trkpt>
        <trkpt lat="29.737547" lon="103.545909"><ele>394.22</ele><time></time></trkpt>
        <trkpt lat="29.737651" lon="103.54586"><ele>394.4</ele><time></time></trkpt>
        <trkpt lat="29.737755" lon="103.545854"><ele>394.75</ele><time></time></trkpt>
        <trkpt lat="29.737844" lon="103.545895"><ele>394.74</ele><time></time></trkpt>
        <trkpt lat="29.737933" lon="103.545928"><ele>396.31</ele><time></time></trkpt>
        <trkpt lat="29.738022" lon="103.545935"><ele>397.54</ele><time></time></trkpt>
        <trkpt lat="29.73811" lon="103.545915"><ele>398.21</ele><time></time></trkpt>
        <trkpt lat="29.738204" lon="103.545891"><ele>398.45</ele><time></time></trkpt>
        <trkpt lat="29.738263" lon="103.545874"><ele>399.03</ele><time></time></trkpt>
        <trkpt lat="29.738346" lon="103.545879"><ele>400.02</ele><time></time></trkpt>
        <trkpt lat="29.738435" lon="103.545879"><ele>399.02</ele><time></time></trkpt>
        <trkpt lat="29.738529" lon="103.545869"><ele>397.72</ele><time></time></trkpt>
        <trkpt lat="29.73862" lon="103.545832"><ele>395.94</ele><time></time></trkpt>
        <trkpt lat="29.738716" lon="103.545791"><ele>395.37</ele><time></time></trkpt>
        <trkpt lat="29.738819" lon="103.545739"><ele>394.1</ele><time></time></trkpt>
        <trkpt lat="29.73892" lon="103.545699"><ele>392.17</ele><time></time></trkpt>
        <trkpt lat="29.739021" lon="103.545723"><ele>392.52</ele><time></time></trkpt>
        <trkpt lat="29.739116" lon="103.545748"><ele>391.22</ele><time></time></trkpt>
        <trkpt lat="29.739211" lon="103.545748"><ele>390.17</ele><time></time></trkpt>
        <trkpt lat="29.739308" lon="103.545728"><ele>390.38</ele><time></time></trkpt>
        <trkpt lat="29.739413" lon="103.545691"><ele>390.97</ele><time></time></trkpt>
        <trkpt lat="29.73952" lon="103.545661"><ele>392.47</ele><time></time></trkpt>
        <trkpt lat="29.739623" lon="103.545642"><ele>393.99</ele><time></time></trkpt>
        <trkpt lat="29.739717" lon="103.545635"><ele>394.61</ele><time></time></trkpt>
        <trkpt lat="29.739814" lon="103.545626"><ele>394.54</ele><time></time></trkpt>
        <trkpt lat="29.739908" lon="103.545623"><ele>395.37</ele><time></time></trkpt>
        <trkpt lat="29.740001" lon="103.545619"><ele>395.7</ele><time></time></trkpt>
        <trkpt lat="29.740095" lon="103.545615"><ele>395.05</ele><time></time></trkpt>
        <trkpt lat="29.740189" lon="103.545611"><ele>395.48</ele><time></time></trkpt>
        <trkpt lat="29.740282" lon="103.545619"><ele>396.79</ele><time></time></trkpt>
        <trkpt lat="29.740384" lon="103.545619"><ele>397.92</ele><time></time></trkpt>
        <trkpt lat="29.740482" lon="103.545623"><ele>398.07</ele><time></time></trkpt>
        <trkpt lat="29.740577" lon="103.545622"><ele>396.41</ele><time></time></trkpt>
        <trkpt lat="29.740682" lon="103.545618"><ele>395.41</ele><time></time></trkpt>
        <trkpt lat="29.740783" lon="103.54561"><ele>395.01</ele><time></time></trkpt>
        <trkpt lat="29.740878" lon="103.545614"><ele>394.94</ele><time></time></trkpt>
        <trkpt lat="29.740972" lon="103.545619"><ele>395.22</ele><time></time></trkpt>
        <trkpt lat="29.741063" lon="103.545635"><ele>395.69</ele><time></time></trkpt>
        <trkpt lat="29.741155" lon="103.545648"><ele>396.37</ele><time></time></trkpt>
        <trkpt lat="29.741246" lon="103.545668"><ele>396.3</ele><time></time></trkpt>
        <trkpt lat="29.741351" lon="103.545673"><ele>395.47</ele><time></time></trkpt>
        <trkpt lat="29.741458" lon="103.545669"><ele>395.08</ele><time></time></trkpt>
        <trkpt lat="29.741568" lon="103.545664"><ele>393.77</ele><time></time></trkpt>
        <trkpt lat="29.741667" lon="103.545669"><ele>392.65</ele><time></time></trkpt>
        <trkpt lat="29.741758" lon="103.54568"><ele>392.32</ele><time></time></trkpt>
        <trkpt lat="29.741848" lon="103.545691"><ele>393.48</ele><time></time></trkpt>
        <trkpt lat="29.741939" lon="103.545667"><ele>394.32</ele><time></time></trkpt>
        <trkpt lat="29.74203" lon="103.545695"><ele>395.38</ele><time></time></trkpt>
        <trkpt lat="29.742125" lon="103.545733"><ele>395.35</ele><time></time></trkpt>
        <trkpt lat="29.742222" lon="103.545763"><ele>395.27</ele><time></time></trkpt>
        <trkpt lat="29.742318" lon="103.54574"><ele>397.53</ele><time></time></trkpt>
        <trkpt lat="29.742338" lon="103.545734"><ele>398.54</ele><time></time></trkpt>
        <trkpt lat="29.742425" lon="103.545754"><ele>399.14</ele><time></time></trkpt>
        <trkpt lat="29.742525" lon="103.545777"><ele>399.18</ele><time></time></trkpt>
        <trkpt lat="29.74258" lon="103.545787"><ele>398.54</ele><time></time></trkpt>
        <trkpt lat="29.742669" lon="103.545812"><ele>396.7</ele><time></time></trkpt>
        <trkpt lat="29.742764" lon="103.545843"><ele>396.13</ele><time></time></trkpt>
        <trkpt lat="29.742859" lon="103.545881"><ele>395.69</ele><time></time></trkpt>
        <trkpt lat="29.742959" lon="103.545895"><ele>394.57</ele><time></time></trkpt>
        <trkpt lat="29.743066" lon="103.545868"><ele>393.71</ele><time></time></trkpt>
        <trkpt lat="29.743174" lon="103.545839"><ele>393.44</ele><time></time></trkpt>
        <trkpt lat="29.743269" lon="103.54586"><ele>393.39</ele><time></time></trkpt>
        <trkpt lat="29.743361" lon="103.545824"><ele>394.72</ele><time></time></trkpt>
        <trkpt lat="29.743441" lon="103.545767"><ele>396.65</ele><time></time></trkpt>
        <trkpt lat="29.743513" lon="103.545762"><ele>397.92</ele><time></time></trkpt>
        <trkpt lat="29.743593" lon="103.545718"><ele>397.84</ele><time></time></trkpt>
        <trkpt lat="29.74368" lon="103.545687"><ele>396.59</ele><time></time></trkpt>
        <trkpt lat="29.743779" lon="103.545679"><ele>396.56</ele><time></time></trkpt>
        <trkpt lat="29.743875" lon="103.545678"><ele>396.33</ele><time></time></trkpt>
        <trkpt lat="29.743908" lon="103.545698"><ele>396.56</ele><time></time></trkpt>
        <trkpt lat="29.743976" lon="103.54569"><ele>396.15</ele><time></time></trkpt>
        <trkpt lat="29.74406" lon="103.545643"><ele>396.95</ele><time></time></trkpt>
        <trkpt lat="29.744153" lon="103.545596"><ele>396.36</ele><time></time></trkpt>
        <trkpt lat="29.744244" lon="103.545556"><ele>396.5</ele><time></time></trkpt>
        <trkpt lat="29.74434" lon="103.545523"><ele>395.61</ele><time></time></trkpt>
        <trkpt lat="29.744428" lon="103.545485"><ele>396.29</ele><time></time></trkpt>
        <trkpt lat="29.744519" lon="103.545461"><ele>397.06</ele><time></time></trkpt>
        <trkpt lat="29.74461" lon="103.545424"><ele>396.65</ele><time></time></trkpt>
        <trkpt lat="29.744703" lon="103.545383"><ele>394.8</ele><time></time></trkpt>
        <trkpt lat="29.744801" lon="103.545349"><ele>393.97</ele><time></time></trkpt>
        <trkpt lat="29.744891" lon="103.545313"><ele>393.42</ele><time></time></trkpt>
        <trkpt lat="29.744978" lon="103.545282"><ele>393.02</ele><time></time></trkpt>
        <trkpt lat="29.745076" lon="103.545246"><ele>392.21</ele><time></time></trkpt>
        <trkpt lat="29.745159" lon="103.545195"><ele>389.9</ele><time></time></trkpt>
        <trkpt lat="29.74524" lon="103.545143"><ele>389.32</ele><time></time></trkpt>
        <trkpt lat="29.745326" lon="103.545088"><ele>389.12</ele><time></time></trkpt>
        <trkpt lat="29.745404" lon="103.545028"><ele>388.92</ele><time></time></trkpt>
        <trkpt lat="29.745499" lon="103.544978"><ele>390.34</ele><time></time></trkpt>
        <trkpt lat="29.745605" lon="103.544938"><ele>391.53</ele><time></time></trkpt>
        <trkpt lat="29.745703" lon="103.544918"><ele>392.16</ele><time></time></trkpt>
        <trkpt lat="29.74579" lon="103.544882"><ele>392.67</ele><time></time></trkpt>
        <trkpt lat="29.745884" lon="103.544859"><ele>393.05</ele><time></time></trkpt>
        <trkpt lat="29.745971" lon="103.544818"><ele>393.67</ele><time></time></trkpt>
        <trkpt lat="29.746058" lon="103.544758"><ele>393.65</ele><time></time></trkpt>
        <trkpt lat="29.746145" lon="103.544695"><ele>393.56</ele><time></time></trkpt>
        <trkpt lat="29.746228" lon="103.544638"><ele>393.45</ele><time></time></trkpt>
        <trkpt lat="29.746322" lon="103.544577"><ele>393.79</ele><time></time></trkpt>
        <trkpt lat="29.746413" lon="103.54453"><ele>393.53</ele><time></time></trkpt>
        <trkpt lat="29.746503" lon="103.54448"><ele>393.42</ele><time></time></trkpt>
        <trkpt lat="29.746592" lon="103.544436"><ele>393.37</ele><time></time></trkpt>
        <trkpt lat="29.746685" lon="103.544383"><ele>392.73</ele><time></time></trkpt>
        <trkpt lat="29.746769" lon="103.544319"><ele>392.47</ele><time></time></trkpt>
        <trkpt lat="29.746846" lon="103.544237"><ele>392.71</ele><time></time></trkpt>
        <trkpt lat="29.746919" lon="103.544149"><ele>392.97</ele><time></time></trkpt>
        <trkpt lat="29.746995" lon="103.544065"><ele>393.16</ele><time></time></trkpt>
        <trkpt lat="29.747065" lon="103.543992"><ele>392.87</ele><time></time></trkpt>
        <trkpt lat="29.747134" lon="103.543916"><ele>392.61</ele><time></time></trkpt>
        <trkpt lat="29.747203" lon="103.543823"><ele>392.37</ele><time></time></trkpt>
        <trkpt lat="29.747265" lon="103.543717"><ele>391.4</ele><time></time></trkpt>
        <trkpt lat="29.747317" lon="103.543601"><ele>390.32</ele><time></time></trkpt>
        <trkpt lat="29.74738" lon="103.543494"><ele>388.85</ele><time></time></trkpt>
        <trkpt lat="29.747449" lon="103.543398"><ele>387.61</ele><time></time></trkpt>
        <trkpt lat="29.747508" lon="103.54331"><ele>386.35</ele><time></time></trkpt>
        <trkpt lat="29.747574" lon="103.543215"><ele>385.15</ele><time></time></trkpt>
        <trkpt lat="29.747652" lon="103.543138"><ele>384.52</ele><time></time></trkpt>
        <trkpt lat="29.747737" lon="103.543076"><ele>384.36</ele><time></time></trkpt>
        <trkpt lat="29.747822" lon="103.542999"><ele>383.95</ele><time></time></trkpt>
        <trkpt lat="29.747862" lon="103.5429"><ele>383.54</ele><time></time></trkpt>
        <trkpt lat="29.747893" lon="103.542784"><ele>383.64</ele><time></time></trkpt>
        <trkpt lat="29.747942" lon="103.54267"><ele>383.51</ele><time></time></trkpt>
        <trkpt lat="29.748001" lon="103.542577"><ele>382.85</ele><time></time></trkpt>
        <trkpt lat="29.748013" lon="103.542466"><ele>383.7</ele><time></time></trkpt>
        <trkpt lat="29.747991" lon="103.542361"><ele>384.38</ele><time></time></trkpt>
        <trkpt lat="29.747989" lon="103.542238"><ele>384.99</ele><time></time></trkpt>
        <trkpt lat="29.748034" lon="103.542142"><ele>385.06</ele><time></time></trkpt>
        <trkpt lat="29.748085" lon="103.542058"><ele>385.75</ele><time></time></trkpt>
        <trkpt lat="29.748171" lon="103.541999"><ele>386.17</ele><time></time></trkpt>
        <trkpt lat="29.748266" lon="103.541935"><ele>386.1</ele><time></time></trkpt>
        <trkpt lat="29.748359" lon="103.541886"><ele>387.34</ele><time></time></trkpt>
        <trkpt lat="29.74843" lon="103.541795"><ele>389.63</ele><time></time></trkpt>
        <trkpt lat="29.748499" lon="103.541702"><ele>391.45</ele><time></time></trkpt>
        <trkpt lat="29.748555" lon="103.541603"><ele>391.41</ele><time></time></trkpt>
        <trkpt lat="29.748549" lon="103.541485"><ele>391.33</ele><time></time></trkpt>
        <trkpt lat="29.748542" lon="103.54137"><ele>390.63</ele><time></time></trkpt>
        <trkpt lat="29.748528" lon="103.541258"><ele>389.44</ele><time></time></trkpt>
        <trkpt lat="29.748503" lon="103.541153"><ele>387.82</ele><time></time></trkpt>
        <trkpt lat="29.748468" lon="103.541054"><ele>387.2</ele><time></time></trkpt>
        <trkpt lat="29.748434" lon="103.540951"><ele>386.31</ele><time></time></trkpt>
        <trkpt lat="29.748399" lon="103.540848"><ele>385.83</ele><time></time></trkpt>
        <trkpt lat="29.748389" lon="103.54074"><ele>385.72</ele><time></time></trkpt>
        <trkpt lat="29.748385" lon="103.540616"><ele>385.48</ele><time></time></trkpt>
        <trkpt lat="29.748378" lon="103.540495"><ele>385.37</ele><time></time></trkpt>
        <trkpt lat="29.748349" lon="103.540378"><ele>385.42</ele><time></time></trkpt>
        <trkpt lat="29.748336" lon="103.540258"><ele>384.48</ele><time></time></trkpt>
        <trkpt lat="29.748339" lon="103.540141"><ele>383.99</ele><time></time></trkpt>
        <trkpt lat="29.748394" lon="103.540036"><ele>384.97</ele><time></time></trkpt>
        <trkpt lat="29.748493" lon="103.539998"><ele>385.94</ele><time></time></trkpt>
        <trkpt lat="29.748604" lon="103.539992"><ele>386.32</ele><time></time></trkpt>
        <trkpt lat="29.748721" lon="103.54"><ele>386.6</ele><time></time></trkpt>
        <trkpt lat="29.748827" lon="103.540014"><ele>386.88</ele><time></time></trkpt>
        <trkpt lat="29.74893" lon="103.540029"><ele>387.1</ele><time></time></trkpt>
        <trkpt lat="29.749021" lon="103.540074"><ele>387.95</ele><time></time></trkpt>
        <trkpt lat="29.749067" lon="103.540183"><ele>388.22</ele><time></time></trkpt>
        <trkpt lat="29.749108" lon="103.540288"><ele>388.34</ele><time></time></trkpt>
        <trkpt lat="29.749155" lon="103.540391"><ele>388.57</ele><time></time></trkpt>
        <trkpt lat="29.749202" lon="103.540488"><ele>389.55</ele><time></time></trkpt>
        <trkpt lat="29.749263" lon="103.540578"><ele>389.48</ele><time></time></trkpt>
        <trkpt lat="29.749338" lon="103.54064"><ele>388.91</ele><time></time></trkpt>
        <trkpt lat="29.749415" lon="103.540699"><ele>388.78</ele><time></time></trkpt>
        <trkpt lat="29.749492" lon="103.540765"><ele>389.28</ele><time></time></trkpt>
        <trkpt lat="29.749582" lon="103.540829"><ele>389.36</ele><time></time></trkpt>
        <trkpt lat="29.749681" lon="103.540855"><ele>389.42</ele><time></time></trkpt>
        <trkpt lat="29.749782" lon="103.540859"><ele>388.93</ele><time></time></trkpt>
        <trkpt lat="29.749875" lon="103.540807"><ele>387.87</ele><time></time></trkpt>
        <trkpt lat="29.749958" lon="103.540728"><ele>387.24</ele><time></time></trkpt>
        <trkpt lat="29.750022" lon="103.540639"><ele>387.26</ele><time></time></trkpt>
        <trkpt lat="29.750061" lon="103.540529"><ele>387.8</ele><time></time></trkpt>
        <trkpt lat="29.750106" lon="103.540425"><ele>389.47</ele><time></time></trkpt>
        <trkpt lat="29.750167" lon="103.540337"><ele>390.54</ele><time></time></trkpt>
        <trkpt lat="29.750237" lon="103.540261"><ele>390.68</ele><time></time></trkpt>
        <trkpt lat="29.750308" lon="103.540182"><ele>390.58</ele><time></time></trkpt>
        <trkpt lat="29.750374" lon="103.540106"><ele>390.21</ele><time></time></trkpt>
        <trkpt lat="29.750439" lon="103.540021"><ele>389.74</ele><time></time></trkpt>
        <trkpt lat="29.750514" lon="103.539939"><ele>389.18</ele><time></time></trkpt>
        <trkpt lat="29.750594" lon="103.539869"><ele>388.46</ele><time></time></trkpt>
        <trkpt lat="29.750686" lon="103.539815"><ele>387.98</ele><time></time></trkpt>
        <trkpt lat="29.75078" lon="103.539768"><ele>387.65</ele><time></time></trkpt>
        <trkpt lat="29.750871" lon="103.539711"><ele>387.19</ele><time></time></trkpt>
        <trkpt lat="29.750947" lon="103.539644"><ele>387.22</ele><time></time></trkpt>
        <trkpt lat="29.751026" lon="103.539561"><ele>387.59</ele><time></time></trkpt>
        <trkpt lat="29.751084" lon="103.53947"><ele>388.45</ele><time></time></trkpt>
        <trkpt lat="29.751133" lon="103.53938"><ele>389.13</ele><time></time></trkpt>
        <trkpt lat="29.751177" lon="103.539287"><ele>389.1</ele><time></time></trkpt>
        <trkpt lat="29.751225" lon="103.539197"><ele>389.39</ele><time></time></trkpt>
        <trkpt lat="29.751255" lon="103.539098"><ele>389.72</ele><time></time></trkpt>
        <trkpt lat="29.751279" lon="103.538997"><ele>389.28</ele><time></time></trkpt>
        <trkpt lat="29.751306" lon="103.538883"><ele>388.71</ele><time></time></trkpt>
        <trkpt lat="29.751323" lon="103.538779"><ele>391.33</ele><time></time></trkpt>
        <trkpt lat="29.751351" lon="103.538673"><ele>391.13</ele><time></time></trkpt>
        <trkpt lat="29.751397" lon="103.538573"><ele>390.2</ele><time></time></trkpt>
        <trkpt lat="29.751498" lon="103.538619"><ele>387.26</ele><time></time></trkpt>
        <trkpt lat="29.751546" lon="103.538508"><ele>386.1</ele><time></time></trkpt>
        <trkpt lat="29.751588" lon="103.538406"><ele>388.48</ele><time></time></trkpt>
        <trkpt lat="29.751647" lon="103.538317"><ele>388.3</ele><time></time></trkpt>
        <trkpt lat="29.751718" lon="103.538244"><ele>387.87</ele><time></time></trkpt>
        <trkpt lat="29.751783" lon="103.53816"><ele>387.07</ele><time></time></trkpt>
        <trkpt lat="29.75185" lon="103.538086"><ele>386.98</ele><time></time></trkpt>
        <trkpt lat="29.751924" lon="103.538016"><ele>386.94</ele><time></time></trkpt>
        <trkpt lat="29.751985" lon="103.537937"><ele>386.22</ele><time></time></trkpt>
        <trkpt lat="29.752041" lon="103.537846"><ele>385.86</ele><time></time></trkpt>
        <trkpt lat="29.752101" lon="103.537765"><ele>385.53</ele><time></time></trkpt>
        <trkpt lat="29.752176" lon="103.537691"><ele>385.35</ele><time></time></trkpt>
        <trkpt lat="29.752242" lon="103.537612"><ele>385.04</ele><time></time></trkpt>
        <trkpt lat="29.752304" lon="103.53753"><ele>385.19</ele><time></time></trkpt>
        <trkpt lat="29.752367" lon="103.537441"><ele>385.13</ele><time></time></trkpt>
        <trkpt lat="29.752442" lon="103.537347"><ele>384.74</ele><time></time></trkpt>
        <trkpt lat="29.752525" lon="103.537286"><ele>385.31</ele><time></time></trkpt>
        <trkpt lat="29.752605" lon="103.537233"><ele>385.27</ele><time></time></trkpt>
        <trkpt lat="29.752689" lon="103.53717"><ele>384.58</ele><time></time></trkpt>
        <trkpt lat="29.752696" lon="103.537195"><ele>384.15</ele><time></time></trkpt>
        <trkpt lat="29.752742" lon="103.537155"><ele>384.47</ele><time></time></trkpt>
        <trkpt lat="29.752805" lon="103.537074"><ele>384.82</ele><time></time></trkpt>
        <trkpt lat="29.75287" lon="103.536977"><ele>385</ele><time></time></trkpt>
        <trkpt lat="29.752938" lon="103.536896"><ele>385.22</ele><time></time></trkpt>
        <trkpt lat="29.753008" lon="103.536799"><ele>384.89</ele><time></time></trkpt>
        <trkpt lat="29.75307" lon="103.536693"><ele>385.18</ele><time></time></trkpt>
        <trkpt lat="29.753119" lon="103.536687"><ele>385.26</ele><time></time></trkpt>
        <trkpt lat="29.753171" lon="103.536612"><ele>384.87</ele><time></time></trkpt>
        <trkpt lat="29.753215" lon="103.536514"><ele>385.22</ele><time></time></trkpt>
        <trkpt lat="29.753275" lon="103.536419"><ele>385.1</ele><time></time></trkpt>
        <trkpt lat="29.753343" lon="103.536324"><ele>384.38</ele><time></time></trkpt>
        <trkpt lat="29.753394" lon="103.536229"><ele>383.4</ele><time></time></trkpt>
        <trkpt lat="29.753448" lon="103.536136"><ele>382.99</ele><time></time></trkpt>
        <trkpt lat="29.753516" lon="103.536045"><ele>382.43</ele><time></time></trkpt>
        <trkpt lat="29.753607" lon="103.53597"><ele>382.88</ele><time></time></trkpt>
        <trkpt lat="29.753679" lon="103.535873"><ele>383.31</ele><time></time></trkpt>
        <trkpt lat="29.753742" lon="103.535772"><ele>384.04</ele><time></time></trkpt>
        <trkpt lat="29.753783" lon="103.535657"><ele>385.45</ele><time></time></trkpt>
        <trkpt lat="29.753815" lon="103.53555"><ele>386.01</ele><time></time></trkpt>
        <trkpt lat="29.753845" lon="103.535447"><ele>386.5</ele><time></time></trkpt>
        <trkpt lat="29.753886" lon="103.535335"><ele>386.35</ele><time></time></trkpt>
        <trkpt lat="29.753934" lon="103.53524"><ele>385.99</ele><time></time></trkpt>
        <trkpt lat="29.753992" lon="103.535147"><ele>385.86</ele><time></time></trkpt>
        <trkpt lat="29.754055" lon="103.535053"><ele>385.17</ele><time></time></trkpt>
        <trkpt lat="29.754084" lon="103.534947"><ele>384.95</ele><time></time></trkpt>
        <trkpt lat="29.754127" lon="103.534853"><ele>383.89</ele><time></time></trkpt>
        <trkpt lat="29.754183" lon="103.534763"><ele>383.25</ele><time></time></trkpt>
        <trkpt lat="29.754229" lon="103.534654"><ele>383.12</ele><time></time></trkpt>
        <trkpt lat="29.754282" lon="103.534558"><ele>383.32</ele><time></time></trkpt>
        <trkpt lat="29.754319" lon="103.534458"><ele>383.49</ele><time></time></trkpt>
        <trkpt lat="29.754348" lon="103.534358"><ele>383.66</ele><time></time></trkpt>
        <trkpt lat="29.754377" lon="103.534257"><ele>384.16</ele><time></time></trkpt>
        <trkpt lat="29.75438" lon="103.534224"><ele>384.91</ele><time></time></trkpt>
        <trkpt lat="29.75439" lon="103.534142"><ele>385.48</ele><time></time></trkpt>
        <trkpt lat="29.754406" lon="103.534036"><ele>385.12</ele><time></time></trkpt>
        <trkpt lat="29.754417" lon="103.533918"><ele>384.77</ele><time></time></trkpt>
        <trkpt lat="29.75445" lon="103.533853"><ele>384.45</ele><time></time></trkpt>
        <trkpt lat="29.754459" lon="103.533762"><ele>384.88</ele><time></time></trkpt>
        <trkpt lat="29.754452" lon="103.533644"><ele>385.1</ele><time></time></trkpt>
        <trkpt lat="29.754466" lon="103.533533"><ele>384.94</ele><time></time></trkpt>
        <trkpt lat="29.754482" lon="103.533421"><ele>384.97</ele><time></time></trkpt>
        <trkpt lat="29.754506" lon="103.533307"><ele>385.05</ele><time></time></trkpt>
        <trkpt lat="29.754579" lon="103.533223"><ele>384.98</ele><time></time></trkpt>
        <trkpt lat="29.754628" lon="103.533116"><ele>384.87</ele><time></time></trkpt>
        <trkpt lat="29.754661" lon="103.533013"><ele>383.92</ele><time></time></trkpt>
      </trkseg>
      <trkseg>
        <trkpt lat="29.732922" lon="103.544073"><ele>421.76187</ele><time></time></trkpt>
        <trkpt lat="29.732963" lon="103.544038"><ele>422.15018</ele><time></time></trkpt>
        <trkpt lat="29.732996" lon="103.543999"><ele>423.41745</ele><time></time></trkpt>
        <trkpt lat="29.733046" lon="103.543986"><ele>423.09293</ele><time></time></trkpt>
        <trkpt lat="29.733087" lon="103.543959"><ele>425.8317</ele><time></time></trkpt>
        <trkpt lat="29.733127" lon="103.543931"><ele>425.987</ele><time></time></trkpt>
        <trkpt lat="29.733165" lon="103.543892"><ele>425.501</ele><time></time></trkpt>
        <trkpt lat="29.733203" lon="103.543845"><ele>425.67276</ele><time></time></trkpt>
        <trkpt lat="29.733242" lon="103.54381"><ele>426.0731</ele><time></time></trkpt>
        <trkpt lat="29.733284" lon="103.543762"><ele>425.7475</ele><time></time></trkpt>
        <trkpt lat="29.73333" lon="103.543716"><ele>425.1451</ele><time></time></trkpt>
        <trkpt lat="29.733368" lon="103.543681"><ele>425.2684</ele><time></time></trkpt>
        <trkpt lat="29.733395" lon="103.543624"><ele>424.69467</ele><time></time></trkpt>
        <trkpt lat="29.733427" lon="103.543568"><ele>425.16302</ele><time></time></trkpt>
        <trkpt lat="29.733465" lon="103.543527"><ele>426.58817</ele><time></time></trkpt>
        <trkpt lat="29.733499" lon="103.54348"><ele>428.03867</ele><time></time></trkpt>
        <trkpt lat="29.733534" lon="103.543434"><ele>427.6667</ele><time></time></trkpt>
        <trkpt lat="29.733559" lon="103.543378"><ele>429.3984</ele><time></time></trkpt>
        <trkpt lat="29.733592" lon="103.543331"><ele>429.3484</ele><time></time></trkpt>
        <trkpt lat="29.733628" lon="103.543287"><ele>430.29205</ele><time></time></trkpt>
        <trkpt lat="29.733654" lon="103.54324"><ele>430.72165</ele><time></time></trkpt>
        <trkpt lat="29.733672" lon="103.543177"><ele>430.97693</ele><time></time></trkpt>
        <trkpt lat="29.733692" lon="103.543123"><ele>432.41028</ele><time></time></trkpt>
        <trkpt lat="29.733711" lon="103.543065"><ele>432.88147</ele><time></time></trkpt>
        <trkpt lat="29.733731" lon="103.543009"><ele>433.13333</ele><time></time></trkpt>
        <trkpt lat="29.733759" lon="103.542968"><ele>434.13898</ele><time></time></trkpt>
        <trkpt lat="29.73378" lon="103.542918"><ele>435.30075</ele><time></time></trkpt>
        <trkpt lat="29.733819" lon="103.542878"><ele>436.63773</ele><time></time></trkpt>
        <trkpt lat="29.733857" lon="103.542846"><ele>437.56302</ele><time></time></trkpt>
        <trkpt lat="29.733887" lon="103.542802"><ele>437.08658</ele><time></time></trkpt>
        <trkpt lat="29.733929" lon="103.542766"><ele>438.42453</ele><time></time></trkpt>
        <trkpt lat="29.73397" lon="103.542742"><ele>438.64606</ele><time></time></trkpt>
        <trkpt lat="29.734025" lon="103.542726"><ele>439.8031</ele><time></time></trkpt>
        <trkpt lat="29.734071" lon="103.542715"><ele>439.63452</ele><time></time></trkpt>
        <trkpt lat="29.734124" lon="103.542696"><ele>440.4306</ele><time></time></trkpt>
        <trkpt lat="29.734168" lon="103.54266"><ele>439.78278</ele><time></time></trkpt>
        <trkpt lat="29.734217" lon="103.542638"><ele>440.53195</ele><time></time></trkpt>
        <trkpt lat="29.734249" lon="103.542602"><ele>441.06647</ele><time></time></trkpt>
        <trkpt lat="29.734281" lon="103.54256"><ele>441.0891</ele><time></time></trkpt>
        <trkpt lat="29.734319" lon="103.54252"><ele>443.0077</ele><time></time></trkpt>
        <trkpt lat="29.734361" lon="103.54248"><ele>444.53348</ele><time></time></trkpt>
        <trkpt lat="29.734412" lon="103.542455"><ele>445.0548</ele><time></time></trkpt>
        <trkpt lat="29.734459" lon="103.54245"><ele>446.9384</ele><time></time></trkpt>
        <trkpt lat="29.734503" lon="103.542443"><ele>446.911</ele><time></time></trkpt>
        <trkpt lat="29.734548" lon="103.542422"><ele>447.64536</ele><time></time></trkpt>
        <trkpt lat="29.734602" lon="103.54242"><ele>446.7375</ele><time></time></trkpt>
        <trkpt lat="29.734635" lon="103.542375"><ele>448.59268</ele><time></time></trkpt>
        <trkpt lat="29.734649" lon="103.542313"><ele>449.6363</ele><time></time></trkpt>
        <trkpt lat="29.73465" lon="103.542256"><ele>449.4724</ele><time></time></trkpt>
        <trkpt lat="29.73464" lon="103.542204"><ele>449.6159</ele><time></time></trkpt>
        <trkpt lat="29.734601" lon="103.542158"><ele>449.9439</ele><time></time></trkpt>
        <trkpt lat="29.734588" lon="103.542108"><ele>450.354</ele><time></time></trkpt>
        <trkpt lat="29.734601" lon="103.542052"><ele>448.8301</ele><time></time></trkpt>
        <trkpt lat="29.734617" lon="103.541994"><ele>448.99625</ele><time></time></trkpt>
        <trkpt lat="29.734649" lon="103.541954"><ele>448.63232</ele><time></time></trkpt>
        <trkpt lat="29.734653" lon="103.541887"><ele>450.71112</ele><time></time></trkpt>
        <trkpt lat="29.734654" lon="103.54183"><ele>450.27795</ele><time></time></trkpt>
        <trkpt lat="29.734654" lon="103.541773"><ele>451.33875</ele><time></time></trkpt>
        <trkpt lat="29.734653" lon="103.54172"><ele>451.02185</ele><time></time></trkpt>
        <trkpt lat="29.734649" lon="103.541659"><ele>451.1378</ele><time></time></trkpt>
        <trkpt lat="29.734657" lon="103.541599"><ele>451.37228</ele><time></time></trkpt>
        <trkpt lat="29.734692" lon="103.541558"><ele>452.0335</ele><time></time></trkpt>
        <trkpt lat="29.734723" lon="103.541513"><ele>453.0177</ele><time></time></trkpt>
        <trkpt lat="29.734762" lon="103.541478"><ele>453.84146</ele><time></time></trkpt>
        <trkpt lat="29.734791" lon="103.541438"><ele>454.59756</ele><time></time></trkpt>
        <trkpt lat="29.734808" lon="103.541385"><ele>455.22232</ele><time></time></trkpt>
        <trkpt lat="29.734809" lon="103.541332"><ele>455.9265</ele><time></time></trkpt>
        <trkpt lat="29.734793" lon="103.541278"><ele>457.40823</ele><time></time></trkpt>
        <trkpt lat="29.734788" lon="103.541221"><ele>458.4279</ele><time></time></trkpt>
        <trkpt lat="29.734781" lon="103.54116"><ele>457.98157</ele><time></time></trkpt>
        <trkpt lat="29.734801" lon="103.541103"><ele>459.03333</ele><time></time></trkpt>
        <trkpt lat="29.734823" lon="103.541046"><ele>458.43134</ele><time></time></trkpt>
        <trkpt lat="29.734857" lon="103.541001"><ele>458.43295</ele><time></time></trkpt>
        <trkpt lat="29.734867" lon="103.54094"><ele>460.57623</ele><time></time></trkpt>
        <trkpt lat="29.734862" lon="103.540883"><ele>461.1685</ele><time></time></trkpt>
        <trkpt lat="29.734842" lon="103.540836"><ele>462.56564</ele><time></time></trkpt>
        <trkpt lat="29.73482" lon="103.540789"><ele>462.4489</ele><time></time></trkpt>
        <trkpt lat="29.734797" lon="103.540731"><ele>463.05057</ele><time></time></trkpt>
        <trkpt lat="29.734781" lon="103.540679"><ele>462.2472</ele><time></time></trkpt>
        <trkpt lat="29.734769" lon="103.540619"><ele>463.11304</ele><time></time></trkpt>
        <trkpt lat="29.734774" lon="103.540567"><ele>463.65836</ele><time></time></trkpt>
        <trkpt lat="29.73481" lon="103.540535"><ele>465.8912</ele><time></time></trkpt>
        <trkpt lat="29.734859" lon="103.54051"><ele>465.77243</ele><time></time></trkpt>
        <trkpt lat="29.734903" lon="103.540492"><ele>465.12598</ele><time></time></trkpt>
        <trkpt lat="29.734946" lon="103.540474"><ele>465.01102</ele><time></time></trkpt>
        <trkpt lat="29.734988" lon="103.540454"><ele>466.79874</ele><time></time></trkpt>
        <trkpt lat="29.735037" lon="103.540439"><ele>468.65036</ele><time></time></trkpt>
        <trkpt lat="29.735088" lon="103.540412"><ele>469.92242</ele><time></time></trkpt>
        <trkpt lat="29.735136" lon="103.540402"><ele>469.6791</ele><time></time></trkpt>
        <trkpt lat="29.735177" lon="103.540376"><ele>471.25995</ele><time></time></trkpt>
        <trkpt lat="29.735221" lon="103.540338"><ele>472.22546</ele><time></time></trkpt>
        <trkpt lat="29.735266" lon="103.540303"><ele>471.93607</ele><time></time></trkpt>
        <trkpt lat="29.735296" lon="103.540263"><ele>472.84567</ele><time></time></trkpt>
        <trkpt lat="29.73532" lon="103.540214"><ele>472.64764</ele><time></time></trkpt>
        <trkpt lat="29.735333" lon="103.540159"><ele>473.36017</ele><time></time></trkpt>
        <trkpt lat="29.735341" lon="103.540101"><ele>473.9185</ele><time></time></trkpt>
        <trkpt lat="29.735351" lon="103.540051"><ele>474.51056</ele><time></time></trkpt>
        <trkpt lat="29.735372" lon="103.539997"><ele>474.75415</ele><time></time></trkpt>
        <trkpt lat="29.735407" lon="103.539956"><ele>474.9955</ele><time></time></trkpt>
        <trkpt lat="29.73545" lon="103.539933"><ele>476.79398</ele><time></time></trkpt>
        <trkpt lat="29.735468" lon="103.539882"><ele>477.86417</ele><time></time></trkpt>
        <trkpt lat="29.735509" lon="103.539842"><ele>478.8883</ele><time></time></trkpt>
        <trkpt lat="29.735553" lon="103.539817"><ele>479.85318</ele><time></time></trkpt>
        <trkpt lat="29.735608" lon="103.539797"><ele>478.03525</ele><time></time></trkpt>
        <trkpt lat="29.735659" lon="103.539791"><ele>478.4104</ele><time></time></trkpt>
        <trkpt lat="29.735708" lon="103.539763"><ele>479.70456</ele><time></time></trkpt>
        <trkpt lat="29.735755" lon="103.539743"><ele>480.02255</ele><time></time></trkpt>
        <trkpt lat="29.735796" lon="103.539701"><ele>480.17255</ele><time></time></trkpt>
        <trkpt lat="29.735835" lon="103.53967"><ele>481.83823</ele><time></time></trkpt>
        <trkpt lat="29.735887" lon="103.539651"><ele>482.05157</ele><time></time></trkpt>
        <trkpt lat="29.735934" lon="103.53962"><ele>483.70575</ele><time></time></trkpt>
        <trkpt lat="29.735968" lon="103.539579"><ele>484.1076</ele><time></time></trkpt>
        <trkpt lat="29.736007" lon="103.539547"><ele>483.48004</ele><time></time></trkpt>
        <trkpt lat="29.736043" lon="103.539508"><ele>483.7536</ele><time></time></trkpt>
        <trkpt lat="29.736077" lon="103.539466"><ele>484.31448</ele><time></time></trkpt>
        <trkpt lat="29.736096" lon="103.539415"><ele>485.46976</ele><time></time></trkpt>
        <trkpt lat="29.736118" lon="103.53937"><ele>486.33212</ele><time></time></trkpt>
        <trkpt lat="29.736156" lon="103.539333"><ele>487.12808</ele><time></time></trkpt>
        <trkpt lat="29.736205" lon="103.539297"><ele>487.46527</ele><time></time></trkpt>
        <trkpt lat="29.736244" lon="103.539264"><ele>488.38123</ele><time></time></trkpt>
        <trkpt lat="29.736279" lon="103.539212"><ele>488.79333</ele><time></time></trkpt>
        <trkpt lat="29.736299" lon="103.539161"><ele>490.31506</ele><time></time></trkpt>
        <trkpt lat="29.736319" lon="103.539111"><ele>491.35822</ele><time></time></trkpt>
        <trkpt lat="29.736355" lon="103.539071"><ele>491.52466</ele><time></time></trkpt>
        <trkpt lat="29.736401" lon="103.539054"><ele>490.72845</ele><time></time></trkpt>
        <trkpt lat="29.73645" lon="103.539021"><ele>491.65076</ele><time></time></trkpt>
        <trkpt lat="29.73649" lon="103.53899"><ele>493.50668</ele><time></time></trkpt>
        <trkpt lat="29.73654" lon="103.538955"><ele>494.9685</ele><time></time></trkpt>
        <trkpt lat="29.736585" lon="103.538929"><ele>495.7373</ele><time></time></trkpt>
        <trkpt lat="29.73663" lon="103.538907"><ele>494.8106</ele><time></time></trkpt>
        <trkpt lat="29.736677" lon="103.538879"><ele>494.6001</ele><time></time></trkpt>
        <trkpt lat="29.736718" lon="103.538849"><ele>495.0531</ele><time></time></trkpt>
        <trkpt lat="29.736766" lon="103.538828"><ele>495.42548</ele><time></time></trkpt>
        <trkpt lat="29.736822" lon="103.538813"><ele>495.37167</ele><time></time></trkpt>
        <trkpt lat="29.736872" lon="103.538813"><ele>495.6074</ele><time></time></trkpt>
        <trkpt lat="29.736924" lon="103.538797"><ele>497.56113</ele><time></time></trkpt>
        <trkpt lat="29.73698" lon="103.538793"><ele>498.0818</ele><time></time></trkpt>
        <trkpt lat="29.737031" lon="103.538775"><ele>501.1493</ele><time></time></trkpt>
        <trkpt lat="29.737077" lon="103.538784"><ele>501.53995</ele><time></time></trkpt>
        <trkpt lat="29.737126" lon="103.538784"><ele>501.85196</ele><time></time></trkpt>
        <trkpt lat="29.737174" lon="103.538789"><ele>503.27426</ele><time></time></trkpt>
        <trkpt lat="29.737219" lon="103.538792"><ele>503.3651</ele><time></time></trkpt>
        <trkpt lat="29.737262" lon="103.538808"><ele>504.5946</ele><time></time></trkpt>
        <trkpt lat="29.737307" lon="103.538845"><ele>507.17392</ele><time></time></trkpt>
        <trkpt lat="29.737351" lon="103.538874"><ele>508.08078</ele><time></time></trkpt>
        <trkpt lat="29.7374" lon="103.538898"><ele>507.06216</ele><time></time></trkpt>
        <trkpt lat="29.737439" lon="103.53893"><ele>506.87445</ele><time></time></trkpt>
        <trkpt lat="29.737487" lon="103.538921"><ele>507.84128</ele><time></time></trkpt>
        <trkpt lat="29.737536" lon="103.538926"><ele>509.13156</ele><time></time></trkpt>
        <trkpt lat="29.737582" lon="103.538931"><ele>512.07526</ele><time></time></trkpt>
        <trkpt lat="29.737627" lon="103.538945"><ele>514.0497</ele><time></time></trkpt>
        <trkpt lat="29.737626" lon="103.538887"><ele>513.7679</ele><time></time></trkpt>
        <trkpt lat="29.737679" lon="103.538916"><ele>516.0112</ele><time></time></trkpt>
        <trkpt lat="29.737735" lon="103.538938"><ele>516.8704</ele><time></time></trkpt>
        <trkpt lat="29.737782" lon="103.538945"><ele>518.0929</ele><time></time></trkpt>
        <trkpt lat="29.73783" lon="103.538947"><ele>518.90466</ele><time></time></trkpt>
        <trkpt lat="29.737889" lon="103.538942"><ele>520.6867</ele><time></time></trkpt>
        <trkpt lat="29.737938" lon="103.538937"><ele>521.9517</ele><time></time></trkpt>
        <trkpt lat="29.737986" lon="103.538926"><ele>523.90643</ele><time></time></trkpt>
        <trkpt lat="29.738033" lon="103.53892"><ele>523.9578</ele><time></time></trkpt>
        <trkpt lat="29.738084" lon="103.53891"><ele>524.35834</ele><time></time></trkpt>
        <trkpt lat="29.73813" lon="103.538886"><ele>526.6201</ele><time></time></trkpt>
        <trkpt lat="29.73818" lon="103.538873"><ele>525.6641</ele><time></time></trkpt>
        <trkpt lat="29.73822" lon="103.538842"><ele>526.91907</ele><time></time></trkpt>
        <trkpt lat="29.738217" lon="103.538789"><ele>528.19806</ele><time></time></trkpt>
        <trkpt lat="29.738177" lon="103.538752"><ele>532.6278</ele><time></time></trkpt>
        <trkpt lat="29.738135" lon="103.538729"><ele>533.41693</ele><time></time></trkpt>
        <trkpt lat="29.738084" lon="103.538716"><ele>533.818</ele><time></time></trkpt>
        <trkpt lat="29.738022" lon="103.538695"><ele>535.34796</ele><time></time></trkpt>
        <trkpt lat="29.737979" lon="103.538675"><ele>535.93933</ele><time></time></trkpt>
        <trkpt lat="29.737933" lon="103.538649"><ele>536.0044</ele><time></time></trkpt>
        <trkpt lat="29.737883" lon="103.538615"><ele>534.90765</ele><time></time></trkpt>
        <trkpt lat="29.73784" lon="103.538587"><ele>535.7318</ele><time></time></trkpt>
        <trkpt lat="29.737809" lon="103.53854"><ele>534.5412</ele><time></time></trkpt>
        <trkpt lat="29.737798" lon="103.53849"><ele>534.224</ele><time></time></trkpt>
        <trkpt lat="29.73781" lon="103.538438"><ele>532.46954</ele><time></time></trkpt>
        <trkpt lat="29.737817" lon="103.538386"><ele>534.3471</ele><time></time></trkpt>
        <trkpt lat="29.737809" lon="103.538334"><ele>535.8266</ele><time></time></trkpt>
        <trkpt lat="29.737787" lon="103.538285"><ele>537.1623</ele><time></time></trkpt>
        <trkpt lat="29.737771" lon="103.538235"><ele>536.9385</ele><time></time></trkpt>
        <trkpt lat="29.737766" lon="103.538184"><ele>537.32086</ele><time></time></trkpt>
        <trkpt lat="29.737761" lon="103.538115"><ele>537.701</ele><time></time></trkpt>
        <trkpt lat="29.737762" lon="103.53806"><ele>537.6947</ele><time></time></trkpt>
        <trkpt lat="29.73776" lon="103.538006"><ele>540.668</ele><time></time></trkpt>
        <trkpt lat="29.737785" lon="103.537954"><ele>540.67676</ele><time></time></trkpt>
        <trkpt lat="29.737806" lon="103.537896"><ele>541.0762</ele><time></time></trkpt>
        <trkpt lat="29.737818" lon="103.537841"><ele>542.7445</ele><time></time></trkpt>
        <trkpt lat="29.737827" lon="103.537785"><ele>543.0262</ele><time></time></trkpt>
        <trkpt lat="29.737849" lon="103.537736"><ele>543.93115</ele><time></time></trkpt>
        <trkpt lat="29.737862" lon="103.537685"><ele>544.421</ele><time></time></trkpt>
        <trkpt lat="29.737876" lon="103.537635"><ele>546.05054</ele><time></time></trkpt>
        <trkpt lat="29.737888" lon="103.537585"><ele>547.2034</ele><time></time></trkpt>
        <trkpt lat="29.737924" lon="103.537547"><ele>547.164</ele><time></time></trkpt>
        <trkpt lat="29.737962" lon="103.537516"><ele>547.42365</ele><time></time></trkpt>
        <trkpt lat="29.737993" lon="103.537476"><ele>548.1866</ele><time></time></trkpt>
        <trkpt lat="29.738044" lon="103.537455"><ele>548.1406</ele><time></time></trkpt>
        <trkpt lat="29.7381" lon="103.537456"><ele>549.00726</ele><time></time></trkpt>
        <trkpt lat="29.738146" lon="103.537436"><ele>548.9418</ele><time></time></trkpt>
        <trkpt lat="29.738192" lon="103.537414"><ele>550.25446</ele><time></time></trkpt>
        <trkpt lat="29.738239" lon="103.537389"><ele>550.44745</ele><time></time></trkpt>
        <trkpt lat="29.738276" lon="103.537355"><ele>551.1844</ele><time></time></trkpt>
        <trkpt lat="29.738308" lon="103.537316"><ele>551.7081</ele><time></time></trkpt>
        <trkpt lat="29.738342" lon="103.537278"><ele>554.1958</ele><time></time></trkpt>
        <trkpt lat="29.738376" lon="103.537243"><ele>552.9625</ele><time></time></trkpt>
        <trkpt lat="29.738406" lon="103.537198"><ele>553.97</ele><time></time></trkpt>
        <trkpt lat="29.738433" lon="103.537148"><ele>554.13855</ele><time></time></trkpt>
        <trkpt lat="29.738474" lon="103.537109"><ele>555.26483</ele><time></time></trkpt>
        <trkpt lat="29.738506" lon="103.537067"><ele>555.7754</ele><time></time></trkpt>
        <trkpt lat="29.738533" lon="103.537026"><ele>558.2083</ele><time></time></trkpt>
        <trkpt lat="29.738558" lon="103.53698"><ele>558.03815</ele><time></time></trkpt>
        <trkpt lat="29.738596" lon="103.536931"><ele>557.4293</ele><time></time></trkpt>
        <trkpt lat="29.738616" lon="103.536876"><ele>557.40424</ele><time></time></trkpt>
        <trkpt lat="29.738645" lon="103.536828"><ele>559.5247</ele><time></time></trkpt>
        <trkpt lat="29.738674" lon="103.536787"><ele>561.17017</ele><time></time></trkpt>
        <trkpt lat="29.738711" lon="103.536747"><ele>561.05695</ele><time></time></trkpt>
        <trkpt lat="29.738744" lon="103.536698"><ele>562.8297</ele><time></time></trkpt>
        <trkpt lat="29.738773" lon="103.536642"><ele>563.5114</ele><time></time></trkpt>
        <trkpt lat="29.738803" lon="103.5366"><ele>563.6677</ele><time></time></trkpt>
        <trkpt lat="29.738841" lon="103.536563"><ele>564.0474</ele><time></time></trkpt>
        <trkpt lat="29.738871" lon="103.536521"><ele>564.3908</ele><time></time></trkpt>
        <trkpt lat="29.738903" lon="103.536482"><ele>565.18115</ele><time></time></trkpt>
        <trkpt lat="29.738938" lon="103.536442"><ele>565.31696</ele><time></time></trkpt>
        <trkpt lat="29.738972" lon="103.536402"><ele>564.61145</ele><time></time></trkpt>
        <trkpt lat="29.738995" lon="103.536346"><ele>563.808</ele><time></time></trkpt>
        <trkpt lat="29.739023" lon="103.536297"><ele>564.6961</ele><time></time></trkpt>
        <trkpt lat="29.739055" lon="103.536259"><ele>566.68335</ele><time></time></trkpt>
        <trkpt lat="29.73909" lon="103.536207"><ele>568.6097</ele><time></time></trkpt>
        <trkpt lat="29.739122" lon="103.536169"><ele>568.8758</ele><time></time></trkpt>
        <trkpt lat="29.739167" lon="103.536145"><ele>566.78906</ele><time></time></trkpt>
        <trkpt lat="29.739208" lon="103.536118"><ele>568.2656</ele><time></time></trkpt>
        <trkpt lat="29.739239" lon="103.536076"><ele>569.2241</ele><time></time></trkpt>
        <trkpt lat="29.739269" lon="103.536035"><ele>571.2791</ele><time></time></trkpt>
        <trkpt lat="29.739306" lon="103.536004"><ele>572.1443</ele><time></time></trkpt>
        <trkpt lat="29.739348" lon="103.535979"><ele>571.77423</ele><time></time></trkpt>
        <trkpt lat="29.739396" lon="103.535952"><ele>571.3703</ele><time></time></trkpt>
        <trkpt lat="29.739442" lon="103.535936"><ele>572.2663</ele><time></time></trkpt>
        <trkpt lat="29.73947" lon="103.535888"><ele>572.825</ele><time></time></trkpt>
        <trkpt lat="29.73947" lon="103.535829"><ele>571.95404</ele><time></time></trkpt>
        <trkpt lat="29.739467" lon="103.535765"><ele>573.6052</ele><time></time></trkpt>
        <trkpt lat="29.739444" lon="103.53571"><ele>573.8483</ele><time></time></trkpt>
        <trkpt lat="29.739426" lon="103.535657"><ele>574.8641</ele><time></time></trkpt>
        <trkpt lat="29.739406" lon="103.535611"><ele>578.3308</ele><time></time></trkpt>
        <trkpt lat="29.739382" lon="103.535566"><ele>576.9906</ele><time></time></trkpt>
        <trkpt lat="29.739367" lon="103.535511"><ele>575.7388</ele><time></time></trkpt>
        <trkpt lat="29.739349" lon="103.535458"><ele>575.93536</ele><time></time></trkpt>
        <trkpt lat="29.739326" lon="103.535411"><ele>577.64465</ele><time></time></trkpt>
        <trkpt lat="29.73931" lon="103.53536"><ele>579.5785</ele><time></time></trkpt>
        <trkpt lat="29.739307" lon="103.535307"><ele>580.9943</ele><time></time></trkpt>
        <trkpt lat="29.739318" lon="103.535255"><ele>579.86224</ele><time></time></trkpt>
        <trkpt lat="29.73935" lon="103.535204"><ele>580.4248</ele><time></time></trkpt>
        <trkpt lat="29.739389" lon="103.535178"><ele>579.45685</ele><time></time></trkpt>
        <trkpt lat="29.739437" lon="103.535158"><ele>579.84265</ele><time></time></trkpt>
        <trkpt lat="29.739484" lon="103.535138"><ele>581.4571</ele><time></time></trkpt>
        <trkpt lat="29.739535" lon="103.535123"><ele>582.8926</ele><time></time></trkpt>
        <trkpt lat="29.739585" lon="103.535128"><ele>582.67175</ele><time></time></trkpt>
        <trkpt lat="29.739633" lon="103.535136"><ele>582.0425</ele><time></time></trkpt>
        <trkpt lat="29.739687" lon="103.535141"><ele>582.38513</ele><time></time></trkpt>
        <trkpt lat="29.739736" lon="103.535161"><ele>583.4778</ele><time></time></trkpt>
        <trkpt lat="29.739787" lon="103.535169"><ele>582.96765</ele><time></time></trkpt>
        <trkpt lat="29.739838" lon="103.535171"><ele>582.8138</ele><time></time></trkpt>
        <trkpt lat="29.739883" lon="103.535168"><ele>585.1741</ele><time></time></trkpt>
        <trkpt lat="29.739938" lon="103.535146"><ele>588.1309</ele><time></time></trkpt>
        <trkpt lat="29.739991" lon="103.535123"><ele>591.5353</ele><time></time></trkpt>
        <trkpt lat="29.740036" lon="103.535135"><ele>591.4102</ele><time></time></trkpt>
        <trkpt lat="29.740092" lon="103.535126"><ele>592.8718</ele><time></time></trkpt>
        <trkpt lat="29.740132" lon="103.535088"><ele>593.67523</ele><time></time></trkpt>
        <trkpt lat="29.740153" lon="103.535032"><ele>593.54504</ele><time></time></trkpt>
        <trkpt lat="29.740132" lon="103.534975"><ele>594.24176</ele><time></time></trkpt>
        <trkpt lat="29.740097" lon="103.534933"><ele>595.2956</ele><time></time></trkpt>
        <trkpt lat="29.740048" lon="103.534925"><ele>595.65656</ele><time></time></trkpt>
        <trkpt lat="29.740015" lon="103.534888"><ele>593.0704</ele><time></time></trkpt>
        <trkpt lat="29.739977" lon="103.534852"><ele>592.04047</ele><time></time></trkpt>
        <trkpt lat="29.739931" lon="103.534847"><ele>593.30835</ele><time></time></trkpt>
        <trkpt lat="29.739879" lon="103.534819"><ele>593.48785</ele><time></time></trkpt>
        <trkpt lat="29.739835" lon="103.534792"><ele>593.4214</ele><time></time></trkpt>
        <trkpt lat="29.739793" lon="103.534759"><ele>593.6521</ele><time></time></trkpt>
        <trkpt lat="29.739751" lon="103.534739"><ele>594.03735</ele><time></time></trkpt>
        <trkpt lat="29.739711" lon="103.534698"><ele>594.39264</ele><time></time></trkpt>
        <trkpt lat="29.739683" lon="103.534654"><ele>593.80695</ele><time></time></trkpt>
        <trkpt lat="29.739648" lon="103.534612"><ele>594.98303</ele><time></time></trkpt>
        <trkpt lat="29.739613" lon="103.534565"><ele>595.9989</ele><time></time></trkpt>
        <trkpt lat="29.739578" lon="103.534523"><ele>596.2151</ele><time></time></trkpt>
        <trkpt lat="29.73955" lon="103.534482"><ele>596.7915</ele><time></time></trkpt>
        <trkpt lat="29.739521" lon="103.534438"><ele>597.3287</ele><time></time></trkpt>
        <trkpt lat="29.739475" lon="103.534399"><ele>599.27185</ele><time></time></trkpt>
        <trkpt lat="29.739437" lon="103.534361"><ele>598.8063</ele><time></time></trkpt>
        <trkpt lat="29.739396" lon="103.534326"><ele>598.4082</ele><time></time></trkpt>
        <trkpt lat="29.739357" lon="103.53429"><ele>598.7918</ele><time></time></trkpt>
        <trkpt lat="29.739329" lon="103.534242"><ele>598.46515</ele><time></time></trkpt>
        <trkpt lat="29.739301" lon="103.534197"><ele>598.11414</ele><time></time></trkpt>
        <trkpt lat="29.739272" lon="103.534154"><ele>600.3145</ele><time></time></trkpt>
        <trkpt lat="29.739239" lon="103.534106"><ele>601.0067</ele><time></time></trkpt>
        <trkpt lat="29.739215" lon="103.534053"><ele>601.94977</ele><time></time></trkpt>
        <trkpt lat="29.739176" lon="103.534012"><ele>602.87274</ele><time></time></trkpt>
        <trkpt lat="29.739143" lon="103.533961"><ele>603.59265</ele><time></time></trkpt>
        <trkpt lat="29.739122" lon="103.533913"><ele>604.1937</ele><time></time></trkpt>
        <trkpt lat="29.739096" lon="103.533863"><ele>604.10205</ele><time></time></trkpt>
        <trkpt lat="29.739074" lon="103.533815"><ele>604.3276</ele><time></time></trkpt>
        <trkpt lat="29.739044" lon="103.533762"><ele>604.8951</ele><time></time></trkpt>
        <trkpt lat="29.739" lon="103.53373"><ele>605.80695</ele><time></time></trkpt>
        <trkpt lat="29.738962" lon="103.533678"><ele>605.80475</ele><time></time></trkpt>
        <trkpt lat="29.738922" lon="103.533646"><ele>605.1521</ele><time></time></trkpt>
        <trkpt lat="29.738896" lon="103.533602"><ele>605.2613</ele><time></time></trkpt>
        <trkpt lat="29.738848" lon="103.533559"><ele>607.1296</ele><time></time></trkpt>
        <trkpt lat="29.738815" lon="103.533517"><ele>608.21893</ele><time></time></trkpt>
        <trkpt lat="29.738777" lon="103.533489"><ele>607.71783</ele><time></time></trkpt>
        <trkpt lat="29.738736" lon="103.53346"><ele>607.6326</ele><time></time></trkpt>
        <trkpt lat="29.738693" lon="103.533428"><ele>607.09955</ele><time></time></trkpt>
        <trkpt lat="29.738645" lon="103.533399"><ele>607.2017</ele><time></time></trkpt>
        <trkpt lat="29.738601" lon="103.533381"><ele>607.894</ele><time></time></trkpt>
        <trkpt lat="29.738563" lon="103.533349"><ele>609.4231</ele><time></time></trkpt>
        <trkpt lat="29.73852" lon="103.533325"><ele>611.12036</ele><time></time></trkpt>
        <trkpt lat="29.738482" lon="103.533294"><ele>612.50214</ele><time></time></trkpt>
        <trkpt lat="29.738449" lon="103.533254"><ele>612.08215</ele><time></time></trkpt>
        <trkpt lat="29.738405" lon="103.533219"><ele>615.3048</ele><time></time></trkpt>
        <trkpt lat="29.738366" lon="103.533192"><ele>618.46375</ele><time></time></trkpt>
        <trkpt lat="29.738331" lon="103.533144"><ele>619.90125</ele><time></time></trkpt>
        <trkpt lat="29.738304" lon="103.533101"><ele>620.3418</ele><time></time></trkpt>
        <trkpt lat="29.738259" lon="103.53308"><ele>621.34406</ele><time></time></trkpt>
        <trkpt lat="29.738221" lon="103.533042"><ele>621.95105</ele><time></time></trkpt>
        <trkpt lat="29.738189" lon="103.533002"><ele>621.8975</ele><time></time></trkpt>
        <trkpt lat="29.738175" lon="103.532952"><ele>620.2954</ele><time></time></trkpt>
        <trkpt lat="29.738157" lon="103.532897"><ele>619.271</ele><time></time></trkpt>
        <trkpt lat="29.738142" lon="103.53284"><ele>619.59204</ele><time></time></trkpt>
        <trkpt lat="29.738129" lon="103.532786"><ele>619.5356</ele><time></time></trkpt>
        <trkpt lat="29.738115" lon="103.532731"><ele>620.6044</ele><time></time></trkpt>
        <trkpt lat="29.738091" lon="103.532675"><ele>620.2448</ele><time></time></trkpt>
        <trkpt lat="29.738068" lon="103.532617"><ele>621.3426</ele><time></time></trkpt>
        <trkpt lat="29.73804" lon="103.532573"><ele>620.5394</ele><time></time></trkpt>
        <trkpt lat="29.738015" lon="103.532522"><ele>621.196</ele><time></time></trkpt>
        <trkpt lat="29.73798" lon="103.53247"><ele>621.23267</ele><time></time></trkpt>
        <trkpt lat="29.737948" lon="103.532427"><ele>622.29456</ele><time></time></trkpt>
        <trkpt lat="29.737894" lon="103.532411"><ele>624.35065</ele><time></time></trkpt>
        <trkpt lat="29.737842" lon="103.532386"><ele>624.5851</ele><time></time></trkpt>
        <trkpt lat="29.7378" lon="103.532349"><ele>624.2419</ele><time></time></trkpt>
        <trkpt lat="29.737774" lon="103.532299"><ele>624.0557</ele><time></time></trkpt>
        <trkpt lat="29.737766" lon="103.532243"><ele>623.8269</ele><time></time></trkpt>
        <trkpt lat="29.737779" lon="103.532186"><ele>625.8342</ele><time></time></trkpt>
        <trkpt lat="29.737807" lon="103.532129"><ele>625.4891</ele><time></time></trkpt>
        <trkpt lat="29.737841" lon="103.532081"><ele>627.0861</ele><time></time></trkpt>
        <trkpt lat="29.737874" lon="103.532042"><ele>628.98535</ele><time></time></trkpt>
        <trkpt lat="29.737902" lon="103.532"><ele>628.93896</ele><time></time></trkpt>
        <trkpt lat="29.737923" lon="103.531945"><ele>628.4535</ele><time></time></trkpt>
        <trkpt lat="29.737944" lon="103.53189"><ele>627.53925</ele><time></time></trkpt>
        <trkpt lat="29.737942" lon="103.53183"><ele>627.8557</ele><time></time></trkpt>
        <trkpt lat="29.737953" lon="103.531779"><ele>629.9827</ele><time></time></trkpt>
        <trkpt lat="29.73797" lon="103.531728"><ele>630.48236</ele><time></time></trkpt>
        <trkpt lat="29.738008" lon="103.531693"><ele>631.39374</ele><time></time></trkpt>
        <trkpt lat="29.738049" lon="103.53167"><ele>630.4018</ele><time></time></trkpt>
        <trkpt lat="29.738095" lon="103.531659"><ele>631.93555</ele><time></time></trkpt>
        <trkpt lat="29.738141" lon="103.531654"><ele>631.34784</ele><time></time></trkpt>
        <trkpt lat="29.738191" lon="103.531649"><ele>630.8967</ele><time></time></trkpt>
        <trkpt lat="29.738244" lon="103.531633"><ele>632.2104</ele><time></time></trkpt>
        <trkpt lat="29.738294" lon="103.531612"><ele>631.8293</ele><time></time></trkpt>
        <trkpt lat="29.738336" lon="103.531581"><ele>632.8239</ele><time></time></trkpt>
        <trkpt lat="29.738368" lon="103.531538"><ele>634.6546</ele><time></time></trkpt>
        <trkpt lat="29.738402" lon="103.531496"><ele>636.4664</ele><time></time></trkpt>
        <trkpt lat="29.738438" lon="103.531454"><ele>637.3295</ele><time></time></trkpt>
        <trkpt lat="29.738459" lon="103.531404"><ele>636.36383</ele><time></time></trkpt>
        <trkpt lat="29.738465" lon="103.531351"><ele>637.4548</ele><time></time></trkpt>
        <trkpt lat="29.738476" lon="103.5313"><ele>634.7286</ele><time></time></trkpt>
        <trkpt lat="29.738475" lon="103.531237"><ele>636.4395</ele><time></time></trkpt>
        <trkpt lat="29.738469" lon="103.531182"><ele>636.3872</ele><time></time></trkpt>
        <trkpt lat="29.738437" lon="103.53114"><ele>636.2596</ele><time></time></trkpt>
        <trkpt lat="29.738398" lon="103.5311"><ele>636.2601</ele><time></time></trkpt>
        <trkpt lat="29.738363" lon="103.531062"><ele>636.2603</ele><time></time></trkpt>
        <trkpt lat="29.73833" lon="103.531017"><ele>635.8646</ele><time></time></trkpt>
        <trkpt lat="29.738289" lon="103.530978"><ele>635.9418</ele><time></time></trkpt>
        <trkpt lat="29.738271" lon="103.530921"><ele>634.6229</ele><time></time></trkpt>
        <trkpt lat="29.738261" lon="103.53087"><ele>635.5784</ele><time></time></trkpt>
        <trkpt lat="29.738257" lon="103.530815"><ele>635.5625</ele><time></time></trkpt>
        <trkpt lat="29.738261" lon="103.530756"><ele>636.47345</ele><time></time></trkpt>
        <trkpt lat="29.738276" lon="103.530695"><ele>637.1277</ele><time></time></trkpt>
        <trkpt lat="29.738309" lon="103.530653"><ele>638.22986</ele><time></time></trkpt>
        <trkpt lat="29.738287" lon="103.530605"><ele>640.0988</ele><time></time></trkpt>
        <trkpt lat="29.738312" lon="103.53056"><ele>641.06323</ele><time></time></trkpt>
        <trkpt lat="29.738303" lon="103.530501"><ele>641.15497</ele><time></time></trkpt>
        <trkpt lat="29.738303" lon="103.530446"><ele>640.2865</ele><time></time></trkpt>
        <trkpt lat="29.738302" lon="103.530391"><ele>638.63794</ele><time></time></trkpt>
        <trkpt lat="29.73831" lon="103.53033"><ele>636.36847</ele><time></time></trkpt>
        <trkpt lat="29.738303" lon="103.530274"><ele>636.74585</ele><time></time></trkpt>
        <trkpt lat="29.738289" lon="103.530214"><ele>636.79767</ele><time></time></trkpt>
        <trkpt lat="29.738291" lon="103.530154"><ele>637.23004</ele><time></time></trkpt>
        <trkpt lat="29.738297" lon="103.530097"><ele>636.7465</ele><time></time></trkpt>
        <trkpt lat="29.738292" lon="103.530038"><ele>637.3636</ele><time></time></trkpt>
        <trkpt lat="29.738297" lon="103.529984"><ele>640.12506</ele><time></time></trkpt>
        <trkpt lat="29.7383" lon="103.529931"><ele>637.94446</ele><time></time></trkpt>
        <trkpt lat="29.73829" lon="103.52987"><ele>639.22327</ele><time></time></trkpt>
        <trkpt lat="29.738249" lon="103.529826"><ele>639.5867</ele><time></time></trkpt>
        <trkpt lat="29.738199" lon="103.529824"><ele>640.7644</ele><time></time></trkpt>
        <trkpt lat="29.738147" lon="103.529833"><ele>643.1983</ele><time></time></trkpt>
        <trkpt lat="29.738096" lon="103.529853"><ele>642.44305</ele><time></time></trkpt>
        <trkpt lat="29.738052" lon="103.529872"><ele>643.3405</ele><time></time></trkpt>
        <trkpt lat="29.738014" lon="103.529912"><ele>644.7978</ele><time></time></trkpt>
        <trkpt lat="29.737985" lon="103.529967"><ele>645.07544</ele><time></time></trkpt>
        <trkpt lat="29.737953" lon="103.530013"><ele>643.44</ele><time></time></trkpt>
        <trkpt lat="29.737913" lon="103.530053"><ele>642.7477</ele><time></time></trkpt>
        <trkpt lat="29.737876" lon="103.530098"><ele>641.6818</ele><time></time></trkpt>
        <trkpt lat="29.737837" lon="103.530127"><ele>641.7208</ele><time></time></trkpt>
        <trkpt lat="29.737795" lon="103.530151"><ele>640.24506</ele><time></time></trkpt>
        <trkpt lat="29.737749" lon="103.530152"><ele>639.21906</ele><time></time></trkpt>
        <trkpt lat="29.737701" lon="103.530134"><ele>637.95447</ele><time></time></trkpt>
        <trkpt lat="29.73765" lon="103.530114"><ele>638.63617</ele><time></time></trkpt>
        <trkpt lat="29.73762" lon="103.530071"><ele>638.3366</ele><time></time></trkpt>
        <trkpt lat="29.737604" lon="103.530012"><ele>637.8463</ele><time></time></trkpt>
        <trkpt lat="29.737607" lon="103.52995"><ele>637.11926</ele><time></time></trkpt>
        <trkpt lat="29.737616" lon="103.529899"><ele>637.1641</ele><time></time></trkpt>
        <trkpt lat="29.737627" lon="103.529846"><ele>636.3185</ele><time></time></trkpt>
        <trkpt lat="29.73764" lon="103.529787"><ele>637.2191</ele><time></time></trkpt>
        <trkpt lat="29.737651" lon="103.52973"><ele>637.15845</ele><time></time></trkpt>
        <trkpt lat="29.737677" lon="103.529686"><ele>637.86975</ele><time></time></trkpt>
        <trkpt lat="29.737718" lon="103.52964"><ele>638.06165</ele><time></time></trkpt>
        <trkpt lat="29.73776" lon="103.529612"><ele>637.6045</ele><time></time></trkpt>
        <trkpt lat="29.7378" lon="103.529581"><ele>636.58344</ele><time></time></trkpt>
        <trkpt lat="29.737823" lon="103.52953"><ele>637.02057</ele><time></time></trkpt>
        <trkpt lat="29.737849" lon="103.529486"><ele>635.5795</ele><time></time></trkpt>
        <trkpt lat="29.737863" lon="103.529433"><ele>635.0888</ele><time></time></trkpt>
        <trkpt lat="29.737861" lon="103.529491"><ele>639.70654</ele><time></time></trkpt>
        <trkpt lat="29.737823" lon="103.529539"><ele>639.9077</ele><time></time></trkpt>
        <trkpt lat="29.737786" lon="103.529585"><ele>640.15466</ele><time></time></trkpt>
        <trkpt lat="29.737745" lon="103.529615"><ele>640.8064</ele><time></time></trkpt>
        <trkpt lat="29.73771" lon="103.529655"><ele>641.2566</ele><time></time></trkpt>
        <trkpt lat="29.737679" lon="103.5297"><ele>641.69556</ele><time></time></trkpt>
        <trkpt lat="29.737652" lon="103.529749"><ele>641.35913</ele><time></time></trkpt>
        <trkpt lat="29.737642" lon="103.529799"><ele>640.6086</ele><time></time></trkpt>
        <trkpt lat="29.737639" lon="103.529855"><ele>639.31616</ele><time></time></trkpt>
        <trkpt lat="29.737624" lon="103.529916"><ele>639.2827</ele><time></time></trkpt>
        <trkpt lat="29.737616" lon="103.529969"><ele>638.8904</ele><time></time></trkpt>
        <trkpt lat="29.737607" lon="103.530027"><ele>639.2636</ele><time></time></trkpt>
        <trkpt lat="29.737627" lon="103.530081"><ele>639.4826</ele><time></time></trkpt>
        <trkpt lat="29.737674" lon="103.530117"><ele>638.7482</ele><time></time></trkpt>
        <trkpt lat="29.737718" lon="103.53014"><ele>638.7454</ele><time></time></trkpt>
        <trkpt lat="29.737767" lon="103.530139"><ele>640.076</ele><time></time></trkpt>
        <trkpt lat="29.73782" lon="103.530133"><ele>639.6302</ele><time></time></trkpt>
        <trkpt lat="29.737866" lon="103.530111"><ele>640.8911</ele><time></time></trkpt>
        <trkpt lat="29.737901" lon="103.530076"><ele>641.7308</ele><time></time></trkpt>
        <trkpt lat="29.737934" lon="103.530035"><ele>641.3361</ele><time></time></trkpt>
        <trkpt lat="29.73798" lon="103.530009"><ele>642.55524</ele><time></time></trkpt>
        <trkpt lat="29.738" lon="103.529957"><ele>643.5933</ele><time></time></trkpt>
        <trkpt lat="29.738025" lon="103.529914"><ele>643.5997</ele><time></time></trkpt>
        <trkpt lat="29.738063" lon="103.52988"><ele>644.36615</ele><time></time></trkpt>
        <trkpt lat="29.738119" lon="103.529874"><ele>645.75287</ele><time></time></trkpt>
        <trkpt lat="29.738168" lon="103.529848"><ele>645.28906</ele><time></time></trkpt>
        <trkpt lat="29.738218" lon="103.529829"><ele>644.79376</ele><time></time></trkpt>
        <trkpt lat="29.738269" lon="103.529839"><ele>643.80493</ele><time></time></trkpt>
        <trkpt lat="29.738308" lon="103.529882"><ele>642.63617</ele><time></time></trkpt>
        <trkpt lat="29.738324" lon="103.529936"><ele>642.46344</ele><time></time></trkpt>
        <trkpt lat="29.738318" lon="103.529987"><ele>643.05835</ele><time></time></trkpt>
        <trkpt lat="29.738313" lon="103.530049"><ele>641.9783</ele><time></time></trkpt>
        <trkpt lat="29.738311" lon="103.530108"><ele>640.3127</ele><time></time></trkpt>
        <trkpt lat="29.738322" lon="103.530172"><ele>640.17303</ele><time></time></trkpt>
        <trkpt lat="29.73832" lon="103.530237"><ele>640.3721</ele><time></time></trkpt>
        <trkpt lat="29.738324" lon="103.530294"><ele>639.6584</ele><time></time></trkpt>
        <trkpt lat="29.738329" lon="103.530363"><ele>639.99316</ele><time></time></trkpt>
        <trkpt lat="29.738337" lon="103.530428"><ele>642.62775</ele><time></time></trkpt>
        <trkpt lat="29.738335" lon="103.530492"><ele>640.8213</ele><time></time></trkpt>
        <trkpt lat="29.738368" lon="103.530446"><ele>639.8301</ele><time></time></trkpt>
        <trkpt lat="29.738381" lon="103.530395"><ele>639.9058</ele><time></time></trkpt>
        <trkpt lat="29.738389" lon="103.530336"><ele>642.73584</ele><time></time></trkpt>
        <trkpt lat="29.738411" lon="103.530286"><ele>642.3048</ele><time></time></trkpt>
        <trkpt lat="29.738382" lon="103.530224"><ele>643.3706</ele><time></time></trkpt>
        <trkpt lat="29.73841" lon="103.530178"><ele>642.3934</ele><time></time></trkpt>
        <trkpt lat="29.738408" lon="103.530122"><ele>644.31256</ele><time></time></trkpt>
        <trkpt lat="29.738406" lon="103.530066"><ele>646.62103</ele><time></time></trkpt>
        <trkpt lat="29.738406" lon="103.530004"><ele>648.17834</ele><time></time></trkpt>
        <trkpt lat="29.73841" lon="103.529952"><ele>648.5533</ele><time></time></trkpt>
        <trkpt lat="29.738414" lon="103.529896"><ele>649.9187</ele><time></time></trkpt>
        <trkpt lat="29.738413" lon="103.529835"><ele>650.4862</ele><time></time></trkpt>
        <trkpt lat="29.738422" lon="103.529762"><ele>649.069</ele><time></time></trkpt>
        <trkpt lat="29.738455" lon="103.529719"><ele>649.67786</ele><time></time></trkpt>
        <trkpt lat="29.738485" lon="103.529671"><ele>651.2701</ele><time></time></trkpt>
        <trkpt lat="29.738526" lon="103.529638"><ele>653.8791</ele><time></time></trkpt>
        <trkpt lat="29.738559" lon="103.529591"><ele>652.6668</ele><time></time></trkpt>
        <trkpt lat="29.738587" lon="103.529548"><ele>654.28577</ele><time></time></trkpt>
        <trkpt lat="29.738621" lon="103.529503"><ele>652.60754</ele><time></time></trkpt>
        <trkpt lat="29.738662" lon="103.52947"><ele>652.76013</ele><time></time></trkpt>
        <trkpt lat="29.738703" lon="103.529435"><ele>652.5785</ele><time></time></trkpt>
        <trkpt lat="29.73875" lon="103.529407"><ele>653.37836</ele><time></time></trkpt>
        <trkpt lat="29.738795" lon="103.529395"><ele>654.49445</ele><time></time></trkpt>
        <trkpt lat="29.738849" lon="103.52939"><ele>654.78217</ele><time></time></trkpt>
        <trkpt lat="29.738902" lon="103.529389"><ele>655.48505</ele><time></time></trkpt>
        <trkpt lat="29.738954" lon="103.529386"><ele>656.6918</ele><time></time></trkpt>
        <trkpt lat="29.738993" lon="103.52936"><ele>655.49866</ele><time></time></trkpt>
        <trkpt lat="29.739044" lon="103.529339"><ele>657.1425</ele><time></time></trkpt>
        <trkpt lat="29.739083" lon="103.529309"><ele>658.06537</ele><time></time></trkpt>
        <trkpt lat="29.739128" lon="103.529273"><ele>657.356</ele><time></time></trkpt>
        <trkpt lat="29.739162" lon="103.529231"><ele>658.1877</ele><time></time></trkpt>
        <trkpt lat="29.739196" lon="103.529186"><ele>657.89777</ele><time></time></trkpt>
        <trkpt lat="29.739234" lon="103.529139"><ele>657.5554</ele><time></time></trkpt>
        <trkpt lat="29.739281" lon="103.529099"><ele>660.118</ele><time></time></trkpt>
        <trkpt lat="29.739312" lon="103.529058"><ele>660.0833</ele><time></time></trkpt>
        <trkpt lat="29.739351" lon="103.529021"><ele>659.0166</ele><time></time></trkpt>
        <trkpt lat="29.7394" lon="103.529032"><ele>659.79144</ele><time></time></trkpt>
        <trkpt lat="29.739442" lon="103.529072"><ele>659.19403</ele><time></time></trkpt>
        <trkpt lat="29.739442" lon="103.529136"><ele>659.349</ele><time></time></trkpt>
        <trkpt lat="29.73943" lon="103.529191"><ele>658.44116</ele><time></time></trkpt>
        <trkpt lat="29.739427" lon="103.52925"><ele>658.7354</ele><time></time></trkpt>
        <trkpt lat="29.739438" lon="103.529315"><ele>660.2802</ele><time></time></trkpt>
        <trkpt lat="29.73945" lon="103.529366"><ele>660.4503</ele><time></time></trkpt>
        <trkpt lat="29.73948" lon="103.529411"><ele>660.27344</ele><time></time></trkpt>
        <trkpt lat="29.73952" lon="103.529439"><ele>659.74097</ele><time></time></trkpt>
        <trkpt lat="29.739566" lon="103.529453"><ele>661.48285</ele><time></time></trkpt>
        <trkpt lat="29.73961" lon="103.529477"><ele>663.4341</ele><time></time></trkpt>
        <trkpt lat="29.739662" lon="103.529493"><ele>663.7151</ele><time></time></trkpt>
        <trkpt lat="29.73971" lon="103.529508"><ele>665.43756</ele><time></time></trkpt>
        <trkpt lat="29.739757" lon="103.529527"><ele>666.99036</ele><time></time></trkpt>
        <trkpt lat="29.739817" lon="103.529535"><ele>666.3082</ele><time></time></trkpt>
        <trkpt lat="29.739869" lon="103.529556"><ele>667.06854</ele><time></time></trkpt>
        <trkpt lat="29.739916" lon="103.529563"><ele>666.4629</ele><time></time></trkpt>
        <trkpt lat="29.73997" lon="103.529571"><ele>667.00323</ele><time></time></trkpt>
        <trkpt lat="29.740018" lon="103.529565"><ele>668.14276</ele><time></time></trkpt>
        <trkpt lat="29.740075" lon="103.529582"><ele>669.35626</ele><time></time></trkpt>
        <trkpt lat="29.740131" lon="103.529549"><ele>669.012</ele><time></time></trkpt>
        <trkpt lat="29.740186" lon="103.52952"><ele>667.1523</ele><time></time></trkpt>
        <trkpt lat="29.740233" lon="103.529514"><ele>665.89</ele><time></time></trkpt>
        <trkpt lat="29.740277" lon="103.52948"><ele>664.4146</ele><time></time></trkpt>
        <trkpt lat="29.74032" lon="103.529442"><ele>663.5238</ele><time></time></trkpt>
        <trkpt lat="29.740361" lon="103.529405"><ele>662.41797</ele><time></time></trkpt>
        <trkpt lat="29.740408" lon="103.529369"><ele>662.48285</ele><time></time></trkpt>
        <trkpt lat="29.74045" lon="103.529333"><ele>662.40344</ele><time></time></trkpt>
        <trkpt lat="29.74049" lon="103.529296"><ele>662.6452</ele><time></time></trkpt>
        <trkpt lat="29.740534" lon="103.529257"><ele>663.64514</ele><time></time></trkpt>
        <trkpt lat="29.740565" lon="103.529218"><ele>662.0293</ele><time></time></trkpt>
        <trkpt lat="29.740601" lon="103.529185"><ele>663.4759</ele><time></time></trkpt>
        <trkpt lat="29.74064" lon="103.529144"><ele>665.5192</ele><time></time></trkpt>
        <trkpt lat="29.740665" lon="103.52909"><ele>666.03516</ele><time></time></trkpt>
        <trkpt lat="29.74069" lon="103.529044"><ele>666.032</ele><time></time></trkpt>
        <trkpt lat="29.740692" lon="103.528987"><ele>665.4438</ele><time></time></trkpt>
        <trkpt lat="29.740699" lon="103.528931"><ele>665.1373</ele><time></time></trkpt>
        <trkpt lat="29.740732" lon="103.52888"><ele>665.869</ele><time></time></trkpt>
        <trkpt lat="29.740768" lon="103.528849"><ele>667.38837</ele><time></time></trkpt>
        <trkpt lat="29.740811" lon="103.528818"><ele>667.4888</ele><time></time></trkpt>
        <trkpt lat="29.740846" lon="103.528781"><ele>667.3521</ele><time></time></trkpt>
        <trkpt lat="29.740885" lon="103.528736"><ele>666.58606</ele><time></time></trkpt>
        <trkpt lat="29.74091" lon="103.528691"><ele>666.7681</ele><time></time></trkpt>
        <trkpt lat="29.740936" lon="103.52864"><ele>667.2396</ele><time></time></trkpt>
        <trkpt lat="29.74096" lon="103.528587"><ele>669.3444</ele><time></time></trkpt>
        <trkpt lat="29.740985" lon="103.528542"><ele>669.27454</ele><time></time></trkpt>
        <trkpt lat="29.741031" lon="103.528543"><ele>671.414</ele><time></time></trkpt>
        <trkpt lat="29.741073" lon="103.528522"><ele>670.29614</ele><time></time></trkpt>
        <trkpt lat="29.741118" lon="103.528494"><ele>673.7154</ele><time></time></trkpt>
        <trkpt lat="29.741165" lon="103.528419"><ele>677.3704</ele><time></time></trkpt>
        <trkpt lat="29.741156" lon="103.528474"><ele>676.6145</ele><time></time></trkpt>
        <trkpt lat="29.741113" lon="103.528513"><ele>674.84125</ele><time></time></trkpt>
        <trkpt lat="29.741081" lon="103.528549"><ele>672.7649</ele><time></time></trkpt>
        <trkpt lat="29.741085" lon="103.528495"><ele>671.7086</ele><time></time></trkpt>
        <trkpt lat="29.741118" lon="103.528549"><ele>672.3058</ele><time></time></trkpt>
        <trkpt lat="29.741149" lon="103.5286"><ele>671.63367</ele><time></time></trkpt>
        <trkpt lat="29.741164" lon="103.528652"><ele>671.2875</ele><time></time></trkpt>
        <trkpt lat="29.741163" lon="103.528711"><ele>672.2542</ele><time></time></trkpt>
        <trkpt lat="29.741162" lon="103.528771"><ele>673.1334</ele><time></time></trkpt>
        <trkpt lat="29.741157" lon="103.528833"><ele>673.50287</ele><time></time></trkpt>
        <trkpt lat="29.741168" lon="103.528896"><ele>674.9626</ele><time></time></trkpt>
        <trkpt lat="29.741177" lon="103.528955"><ele>676.4913</ele><time></time></trkpt>
        <trkpt lat="29.741206" lon="103.529003"><ele>677.57886</ele><time></time></trkpt>
        <trkpt lat="29.741231" lon="103.529048"><ele>676.519</ele><time></time></trkpt>
        <trkpt lat="29.74126" lon="103.529092"><ele>679.2329</ele><time></time></trkpt>
        <trkpt lat="29.741274" lon="103.52915"><ele>681.7776</ele><time></time></trkpt>
        <trkpt lat="29.741285" lon="103.529207"><ele>680.99664</ele><time></time></trkpt>
        <trkpt lat="29.741309" lon="103.529258"><ele>680.0427</ele><time></time></trkpt>
        <trkpt lat="29.741358" lon="103.529264"><ele>678.8866</ele><time></time></trkpt>
        <trkpt lat="29.741395" lon="103.529235"><ele>679.18866</ele><time></time></trkpt>
        <trkpt lat="29.741432" lon="103.529192"><ele>679.612</ele><time></time></trkpt>
        <trkpt lat="29.741464" lon="103.529149"><ele>680.2221</ele><time></time></trkpt>
        <trkpt lat="29.741497" lon="103.529111"><ele>680.7824</ele><time></time></trkpt>
        <trkpt lat="29.74152" lon="103.529066"><ele>680.99536</ele><time></time></trkpt>
        <trkpt lat="29.74156" lon="103.529025"><ele>682.32965</ele><time></time></trkpt>
        <trkpt lat="29.741611" lon="103.529007"><ele>681.4912</ele><time></time></trkpt>
        <trkpt lat="29.741655" lon="103.529025"><ele>680.1907</ele><time></time></trkpt>
        <trkpt lat="29.741701" lon="103.529049"><ele>677.94714</ele><time></time></trkpt>
        <trkpt lat="29.741716" lon="103.529104"><ele>678.82434</ele><time></time></trkpt>
        <trkpt lat="29.741741" lon="103.529152"><ele>678.66144</ele><time></time></trkpt>
        <trkpt lat="29.741742" lon="103.529216"><ele>677.6517</ele><time></time></trkpt>
        <trkpt lat="29.741755" lon="103.529269"><ele>676.9686</ele><time></time></trkpt>
        <trkpt lat="29.741772" lon="103.529323"><ele>677.63715</ele><time></time></trkpt>
        <trkpt lat="29.741801" lon="103.529373"><ele>678.84814</ele><time></time></trkpt>
        <trkpt lat="29.741834" lon="103.529419"><ele>680.2098</ele><time></time></trkpt>
        <trkpt lat="29.741879" lon="103.529431"><ele>682.5632</ele><time></time></trkpt>
        <trkpt lat="29.741926" lon="103.529441"><ele>683.5703</ele><time></time></trkpt>
        <trkpt lat="29.741971" lon="103.529453"><ele>684.39374</ele><time></time></trkpt>
        <trkpt lat="29.742" lon="103.529411"><ele>684.8163</ele><time></time></trkpt>
        <trkpt lat="29.742034" lon="103.529371"><ele>686.41113</ele><time></time></trkpt>
        <trkpt lat="29.742089" lon="103.529353"><ele>686.9731</ele><time></time></trkpt>
        <trkpt lat="29.742133" lon="103.529339"><ele>691.00165</ele><time></time></trkpt>
        <trkpt lat="29.742129" lon="103.529276"><ele>694.4934</ele><time></time></trkpt>
        <trkpt lat="29.742127" lon="103.529223"><ele>695.5394</ele><time></time></trkpt>
        <trkpt lat="29.742133" lon="103.529171"><ele>697.1578</ele><time></time></trkpt>
        <trkpt lat="29.742099" lon="103.529128"><ele>699.12476</ele><time></time></trkpt>
        <trkpt lat="29.742076" lon="103.529081"><ele>699.65735</ele><time></time></trkpt>
        <trkpt lat="29.742071" lon="103.529027"><ele>699.5165</ele><time></time></trkpt>
        <trkpt lat="29.742078" lon="103.528965"><ele>701.42145</ele><time></time></trkpt>
        <trkpt lat="29.742106" lon="103.528922"><ele>702.5374</ele><time></time></trkpt>
        <trkpt lat="29.742152" lon="103.528901"><ele>702.9139</ele><time></time></trkpt>
        <trkpt lat="29.742208" lon="103.5289"><ele>704.4989</ele><time></time></trkpt>
        <trkpt lat="29.742202" lon="103.528844"><ele>707.7417</ele><time></time></trkpt>
        <trkpt lat="29.742232" lon="103.528805"><ele>709.79895</ele><time></time></trkpt>
        <trkpt lat="29.742276" lon="103.528787"><ele>710.4022</ele><time></time></trkpt>
        <trkpt lat="29.742308" lon="103.528745"><ele>710.357</ele><time></time></trkpt>
        <trkpt lat="29.742292" lon="103.528692"><ele>711.1454</ele><time></time></trkpt>
        <trkpt lat="29.742292" lon="103.528639"><ele>710.92883</ele><time></time></trkpt>
        <trkpt lat="29.742328" lon="103.528606"><ele>710.0244</ele><time></time></trkpt>
        <trkpt lat="29.742367" lon="103.528579"><ele>710.6662</ele><time></time></trkpt>
        <trkpt lat="29.742406" lon="103.528549"><ele>712.25354</ele><time></time></trkpt>
        <trkpt lat="29.74242" lon="103.528487"><ele>711.6451</ele><time></time></trkpt>
        <trkpt lat="29.742472" lon="103.528478"><ele>713.4869</ele><time></time></trkpt>
        <trkpt lat="29.742514" lon="103.528449"><ele>715.41064</ele><time></time></trkpt>
        <trkpt lat="29.742539" lon="103.528403"><ele>715.2541</ele><time></time></trkpt>
        <trkpt lat="29.74257" lon="103.528362"><ele>716.8242</ele><time></time></trkpt>
        <trkpt lat="29.742615" lon="103.528326"><ele>717.4678</ele><time></time></trkpt>
        <trkpt lat="29.742663" lon="103.528286"><ele>716.11755</ele><time></time></trkpt>
        <trkpt lat="29.742683" lon="103.528236"><ele>715.90424</ele><time></time></trkpt>
        <trkpt lat="29.742712" lon="103.528181"><ele>717.0558</ele><time></time></trkpt>
        <trkpt lat="29.742747" lon="103.528138"><ele>717.371</ele><time></time></trkpt>
        <trkpt lat="29.742782" lon="103.528092"><ele>716.63403</ele><time></time></trkpt>
        <trkpt lat="29.742828" lon="103.528062"><ele>716.3907</ele><time></time></trkpt>
        <trkpt lat="29.742867" lon="103.528025"><ele>715.4109</ele><time></time></trkpt>
        <trkpt lat="29.742889" lon="103.527972"><ele>714.1195</ele><time></time></trkpt>
        <trkpt lat="29.742897" lon="103.527917"><ele>713.832</ele><time></time></trkpt>
        <trkpt lat="29.742886" lon="103.527862"><ele>712.6518</ele><time></time></trkpt>
        <trkpt lat="29.742879" lon="103.52781"><ele>712.07996</ele><time></time></trkpt>
        <trkpt lat="29.742883" lon="103.527755"><ele>712.08167</ele><time></time></trkpt>
        <trkpt lat="29.742921" lon="103.527714"><ele>711.82996</ele><time></time></trkpt>
        <trkpt lat="29.742969" lon="103.527693"><ele>712.38226</ele><time></time></trkpt>
        <trkpt lat="29.743017" lon="103.527673"><ele>713.2054</ele><time></time></trkpt>
        <trkpt lat="29.743061" lon="103.527655"><ele>711.96466</ele><time></time></trkpt>
        <trkpt lat="29.743103" lon="103.527628"><ele>710.8861</ele><time></time></trkpt>
        <trkpt lat="29.743145" lon="103.527603"><ele>708.793</ele><time></time></trkpt>
        <trkpt lat="29.743192" lon="103.527577"><ele>708.9794</ele><time></time></trkpt>
        <trkpt lat="29.743235" lon="103.527549"><ele>709.0304</ele><time></time></trkpt>
        <trkpt lat="29.743284" lon="103.52752"><ele>707.9833</ele><time></time></trkpt>
        <trkpt lat="29.743324" lon="103.52748"><ele>707.37067</ele><time></time></trkpt>
        <trkpt lat="29.743368" lon="103.52744"><ele>706.6497</ele><time></time></trkpt>
        <trkpt lat="29.74341" lon="103.527408"><ele>707.12976</ele><time></time></trkpt>
        <trkpt lat="29.743447" lon="103.527376"><ele>707.13916</ele><time></time></trkpt>
        <trkpt lat="29.743483" lon="103.527343"><ele>707.0348</ele><time></time></trkpt>
        <trkpt lat="29.743522" lon="103.527303"><ele>706.1475</ele><time></time></trkpt>
        <trkpt lat="29.743574" lon="103.527268"><ele>705.9656</ele><time></time></trkpt>
        <trkpt lat="29.743629" lon="103.527255"><ele>706.10785</ele><time></time></trkpt>
        <trkpt lat="29.74368" lon="103.527229"><ele>705.9928</ele><time></time></trkpt>
        <trkpt lat="29.743732" lon="103.527212"><ele>705.96484</ele><time></time></trkpt>
        <trkpt lat="29.743779" lon="103.527182"><ele>706.0636</ele><time></time></trkpt>
        <trkpt lat="29.743811" lon="103.527144"><ele>705.70776</ele><time></time></trkpt>
        <trkpt lat="29.743836" lon="103.527089"><ele>703.8612</ele><time></time></trkpt>
        <trkpt lat="29.743862" lon="103.527041"><ele>703.3024</ele><time></time></trkpt>
        <trkpt lat="29.743894" lon="103.526993"><ele>703.1248</ele><time></time></trkpt>
        <trkpt lat="29.743945" lon="103.526967"><ele>701.53937</ele><time></time></trkpt>
        <trkpt lat="29.743987" lon="103.526931"><ele>700.9517</ele><time></time></trkpt>
        <trkpt lat="29.744019" lon="103.52689"><ele>700.9721</ele><time></time></trkpt>
        <trkpt lat="29.74405" lon="103.526843"><ele>700.2015</ele><time></time></trkpt>
        <trkpt lat="29.744081" lon="103.526801"><ele>696.9271</ele><time></time></trkpt>
        <trkpt lat="29.744075" lon="103.526735"><ele>696.6626</ele><time></time></trkpt>
        <trkpt lat="29.744065" lon="103.526679"><ele>696.68555</ele><time></time></trkpt>
        <trkpt lat="29.744061" lon="103.526626"><ele>696.32684</ele><time></time></trkpt>
        <trkpt lat="29.744053" lon="103.526566"><ele>694.43207</ele><time></time></trkpt>
        <trkpt lat="29.744051" lon="103.526509"><ele>692.9634</ele><time></time></trkpt>
        <trkpt lat="29.744055" lon="103.526453"><ele>691.2186</ele><time></time></trkpt>
        <trkpt lat="29.744046" lon="103.526396"><ele>690.3451</ele><time></time></trkpt>
        <trkpt lat="29.744046" lon="103.526334"><ele>691.1555</ele><time></time></trkpt>
        <trkpt lat="29.74406" lon="103.526275"><ele>689.95166</ele><time></time></trkpt>
        <trkpt lat="29.74409" lon="103.526236"><ele>688.9519</ele><time></time></trkpt>
        <trkpt lat="29.744143" lon="103.526224"><ele>686.197</ele><time></time></trkpt>
        <trkpt lat="29.744191" lon="103.526221"><ele>682.9186</ele><time></time></trkpt>
        <trkpt lat="29.744246" lon="103.526225"><ele>682.46875</ele><time></time></trkpt>
        <trkpt lat="29.744294" lon="103.526232"><ele>680.72015</ele><time></time></trkpt>
        <trkpt lat="29.74434" lon="103.526225"><ele>681.47485</ele><time></time></trkpt>
        <trkpt lat="29.744383" lon="103.526187"><ele>681.7452</ele><time></time></trkpt>
        <trkpt lat="29.744407" lon="103.52613"><ele>681.94</ele><time></time></trkpt>
        <trkpt lat="29.744413" lon="103.52607"><ele>683.24475</ele><time></time></trkpt>
        <trkpt lat="29.744398" lon="103.526131"><ele>683.76984</ele><time></time></trkpt>
        <trkpt lat="29.744369" lon="103.526184"><ele>683.38934</ele><time></time></trkpt>
        <trkpt lat="29.744333" lon="103.526222"><ele>683.72345</ele><time></time></trkpt>
        <trkpt lat="29.744278" lon="103.526241"><ele>685.7816</ele><time></time></trkpt>
        <trkpt lat="29.744231" lon="103.526242"><ele>687.6423</ele><time></time></trkpt>
        <trkpt lat="29.744278" lon="103.526224"><ele>685.1654</ele><time></time></trkpt>
        <trkpt lat="29.744326" lon="103.526209"><ele>685.5011</ele><time></time></trkpt>
        <trkpt lat="29.744363" lon="103.526168"><ele>684.9191</ele><time></time></trkpt>
        <trkpt lat="29.744414" lon="103.52618"><ele>680.89954</ele><time></time></trkpt>
        <trkpt lat="29.744463" lon="103.526185"><ele>683.07544</ele><time></time></trkpt>
        <trkpt lat="29.744506" lon="103.526146"><ele>684.1459</ele><time></time></trkpt>
        <trkpt lat="29.744556" lon="103.526135"><ele>684.1822</ele><time></time></trkpt>
        <trkpt lat="29.744604" lon="103.526124"><ele>683.8707</ele><time></time></trkpt>
        <trkpt lat="29.744649" lon="103.526105"><ele>684.152</ele><time></time></trkpt>
        <trkpt lat="29.744693" lon="103.526118"><ele>683.2597</ele><time></time></trkpt>
        <trkpt lat="29.744702" lon="103.526064"><ele>683.2682</ele><time></time></trkpt>
        <trkpt lat="29.744705" lon="103.526011"><ele>684.11676</ele><time></time></trkpt>
        <trkpt lat="29.744703" lon="103.525948"><ele>684.53217</ele><time></time></trkpt>
        <trkpt lat="29.744692" lon="103.525892"><ele>684.4914</ele><time></time></trkpt>
        <trkpt lat="29.744684" lon="103.525837"><ele>684.2668</ele><time></time></trkpt>
        <trkpt lat="29.744683" lon="103.525782"><ele>683.65906</ele><time></time></trkpt>
        <trkpt lat="29.744673" lon="103.525729"><ele>684.2488</ele><time></time></trkpt>
        <trkpt lat="29.744678" lon="103.525786"><ele>683.5773</ele><time></time></trkpt>
        <trkpt lat="29.74468" lon="103.52584"><ele>683.1851</ele><time></time></trkpt>
        <trkpt lat="29.744724" lon="103.525858"><ele>680.92505</ele><time></time></trkpt>
        <trkpt lat="29.744774" lon="103.525876"><ele>679.39307</ele><time></time></trkpt>
        <trkpt lat="29.744813" lon="103.525907"><ele>679.4855</ele><time></time></trkpt>
        <trkpt lat="29.744858" lon="103.525924"><ele>680.6719</ele><time></time></trkpt>
        <trkpt lat="29.744896" lon="103.525965"><ele>680.1583</ele><time></time></trkpt>
        <trkpt lat="29.744928" lon="103.526022"><ele>679.75745</ele><time></time></trkpt>
        <trkpt lat="29.74497" lon="103.526055"><ele>679.3578</ele><time></time></trkpt>
        <trkpt lat="29.745006" lon="103.52609"><ele>679.06085</ele><time></time></trkpt>
        <trkpt lat="29.745047" lon="103.526118"><ele>679.8048</ele><time></time></trkpt>
        <trkpt lat="29.745091" lon="103.526139"><ele>680.4838</ele><time></time></trkpt>
        <trkpt lat="29.745127" lon="103.526185"><ele>678.53253</ele><time></time></trkpt>
        <trkpt lat="29.745171" lon="103.526207"><ele>678.8424</ele><time></time></trkpt>
        <trkpt lat="29.745223" lon="103.526203"><ele>677.0045</ele><time></time></trkpt>
        <trkpt lat="29.745269" lon="103.526206"><ele>678.27484</ele><time></time></trkpt>
        <trkpt lat="29.745314" lon="103.526209"><ele>678.86694</ele><time></time></trkpt>
        <trkpt lat="29.745361" lon="103.526205"><ele>679.71765</ele><time></time></trkpt>
        <trkpt lat="29.745408" lon="103.526188"><ele>679.4934</ele><time></time></trkpt>
        <trkpt lat="29.74545" lon="103.526166"><ele>682.71173</ele><time></time></trkpt>
        <trkpt lat="29.745492" lon="103.526138"><ele>684.2112</ele><time></time></trkpt>
        <trkpt lat="29.745535" lon="103.526122"><ele>685.01324</ele><time></time></trkpt>
        <trkpt lat="29.745593" lon="103.526114"><ele>683.7198</ele><time></time></trkpt>
        <trkpt lat="29.745636" lon="103.526097"><ele>685.1179</ele><time></time></trkpt>
        <trkpt lat="29.745685" lon="103.526082"><ele>684.81537</ele><time></time></trkpt>
        <trkpt lat="29.745731" lon="103.526058"><ele>684.6073</ele><time></time></trkpt>
        <trkpt lat="29.745762" lon="103.526009"><ele>685.83124</ele><time></time></trkpt>
        <trkpt lat="29.745801" lon="103.525973"><ele>689.21313</ele><time></time></trkpt>
        <trkpt lat="29.745834" lon="103.525934"><ele>690.5336</ele><time></time></trkpt>
        <trkpt lat="29.745818" lon="103.525886"><ele>687.90424</ele><time></time></trkpt>
        <trkpt lat="29.745825" lon="103.52583"><ele>688.33014</ele><time></time></trkpt>
        <trkpt lat="29.745853" lon="103.525784"><ele>688.791</ele><time></time></trkpt>
        <trkpt lat="29.745902" lon="103.525761"><ele>689.9634</ele><time></time></trkpt>
        <trkpt lat="29.745954" lon="103.525755"><ele>690.5496</ele><time></time></trkpt>
        <trkpt lat="29.745949" lon="103.525701"><ele>695.7126</ele><time></time></trkpt>
        <trkpt lat="29.74591" lon="103.52567"><ele>693.9577</ele><time></time></trkpt>
        <trkpt lat="29.745863" lon="103.525679"><ele>693.1254</ele><time></time></trkpt>
        <trkpt lat="29.745839" lon="103.525633"><ele>694.7661</ele><time></time></trkpt>
        <trkpt lat="29.745847" lon="103.525578"><ele>695.2888</ele><time></time></trkpt>
        <trkpt lat="29.745887" lon="103.525553"><ele>697.0097</ele><time></time></trkpt>
        <trkpt lat="29.745881" lon="103.52561"><ele>700.4656</ele><time></time></trkpt>
        <trkpt lat="29.745878" lon="103.525666"><ele>699.9699</ele><time></time></trkpt>
        <trkpt lat="29.745832" lon="103.525671"><ele>696.7132</ele><time></time></trkpt>
        <trkpt lat="29.745791" lon="103.525703"><ele>695.2932</ele><time></time></trkpt>
        <trkpt lat="29.745759" lon="103.525745"><ele>693.81415</ele><time></time></trkpt>
        <trkpt lat="29.745729" lon="103.525792"><ele>694.1234</ele><time></time></trkpt>
        <trkpt lat="29.745693" lon="103.525833"><ele>692.3263</ele><time></time></trkpt>
        <trkpt lat="29.745659" lon="103.525874"><ele>691.27936</ele><time></time></trkpt>
        <trkpt lat="29.745621" lon="103.525903"><ele>693.8989</ele><time></time></trkpt>
        <trkpt lat="29.745582" lon="103.525931"><ele>694.7107</ele><time></time></trkpt>
        <trkpt lat="29.745537" lon="103.525962"><ele>693.0485</ele><time></time></trkpt>
        <trkpt lat="29.745502" lon="103.526003"><ele>691.63306</ele><time></time></trkpt>
        <trkpt lat="29.745531" lon="103.525964"><ele>693.2343</ele><time></time></trkpt>
        <trkpt lat="29.745575" lon="103.525932"><ele>694.9071</ele><time></time></trkpt>
        <trkpt lat="29.745536" lon="103.525902"><ele>699.64264</ele><time></time></trkpt>
        <trkpt lat="29.745489" lon="103.525879"><ele>701.0754</ele><time></time></trkpt>
        <trkpt lat="29.745439" lon="103.52584"><ele>702.2326</ele><time></time></trkpt>
        <trkpt lat="29.745461" lon="103.525792"><ele>703.4053</ele><time></time></trkpt>
        <trkpt lat="29.745499" lon="103.525753"><ele>705.2346</ele><time></time></trkpt>
        <trkpt lat="29.74554" lon="103.525723"><ele>707.33813</ele><time></time></trkpt>
        <trkpt lat="29.745583" lon="103.525684"><ele>706.8921</ele><time></time></trkpt>
        <trkpt lat="29.745594" lon="103.525633"><ele>706.7982</ele><time></time></trkpt>
        <trkpt lat="29.745622" lon="103.525579"><ele>707.0118</ele><time></time></trkpt>
        <trkpt lat="29.745648" lon="103.525528"><ele>708.4879</ele><time></time></trkpt>
        <trkpt lat="29.745666" lon="103.525475"><ele>709.70154</ele><time></time></trkpt>
        <trkpt lat="29.745682" lon="103.525427"><ele>710.2525</ele><time></time></trkpt>
        <trkpt lat="29.745696" lon="103.525377"><ele>711.7762</ele><time></time></trkpt>
        <trkpt lat="29.745726" lon="103.525329"><ele>713.25195</ele><time></time></trkpt>
        <trkpt lat="29.745763" lon="103.525297"><ele>712.9597</ele><time></time></trkpt>
        <trkpt lat="29.745791" lon="103.525248"><ele>714.6385</ele><time></time></trkpt>
        <trkpt lat="29.745841" lon="103.525246"><ele>716.22516</ele><time></time></trkpt>
        <trkpt lat="29.745888" lon="103.52522"><ele>715.5445</ele><time></time></trkpt>
        <trkpt lat="29.745926" lon="103.525176"><ele>715.57996</ele><time></time></trkpt>
        <trkpt lat="29.745968" lon="103.525142"><ele>717.2756</ele><time></time></trkpt>
        <trkpt lat="29.746011" lon="103.525115"><ele>716.4268</ele><time></time></trkpt>
        <trkpt lat="29.74606" lon="103.525111"><ele>718.2243</ele><time></time></trkpt>
        <trkpt lat="29.746104" lon="103.525079"><ele>718.28955</ele><time></time></trkpt>
        <trkpt lat="29.746151" lon="103.525062"><ele>719.3247</ele><time></time></trkpt>
        <trkpt lat="29.746197" lon="103.52504"><ele>721.13635</ele><time></time></trkpt>
        <trkpt lat="29.746241" lon="103.525032"><ele>722.5663</ele><time></time></trkpt>
        <trkpt lat="29.746285" lon="103.525014"><ele>723.712</ele><time></time></trkpt>
        <trkpt lat="29.746322" lon="103.52497"><ele>725.6117</ele><time></time></trkpt>
        <trkpt lat="29.746357" lon="103.524923"><ele>725.6892</ele><time></time></trkpt>
        <trkpt lat="29.746383" lon="103.52488"><ele>726.0339</ele><time></time></trkpt>
        <trkpt lat="29.746411" lon="103.524837"><ele>726.5436</ele><time></time></trkpt>
        <trkpt lat="29.746427" lon="103.524779"><ele>727.1723</ele><time></time></trkpt>
        <trkpt lat="29.746447" lon="103.52472"><ele>729.2344</ele><time></time></trkpt>
        <trkpt lat="29.746457" lon="103.524668"><ele>730.2434</ele><time></time></trkpt>
        <trkpt lat="29.746483" lon="103.524623"><ele>730.4056</ele><time></time></trkpt>
        <trkpt lat="29.746508" lon="103.524575"><ele>730.66644</ele><time></time></trkpt>
        <trkpt lat="29.746533" lon="103.524521"><ele>732.89014</ele><time></time></trkpt>
        <trkpt lat="29.746539" lon="103.524466"><ele>732.8638</ele><time></time></trkpt>
        <trkpt lat="29.74654" lon="103.524389"><ele>732.60565</ele><time></time></trkpt>
        <trkpt lat="29.746615" lon="103.5244"><ele>732.929</ele><time></time></trkpt>
        <trkpt lat="29.746559" lon="103.524458"><ele>730.8297</ele><time></time></trkpt>
        <trkpt lat="29.746554" lon="103.524405"><ele>734.7587</ele><time></time></trkpt>
        <trkpt lat="29.74658" lon="103.524357"><ele>735.9181</ele><time></time></trkpt>
        <trkpt lat="29.746608" lon="103.524316"><ele>736.8018</ele><time></time></trkpt>
        <trkpt lat="29.746638" lon="103.524269"><ele>738.73267</ele><time></time></trkpt>
        <trkpt lat="29.746659" lon="103.524213"><ele>741.6631</ele><time></time></trkpt>
        <trkpt lat="29.746701" lon="103.524149"><ele>742.50934</ele><time></time></trkpt>
        <trkpt lat="29.746723" lon="103.524103"><ele>742.0983</ele><time></time></trkpt>
        <trkpt lat="29.746756" lon="103.524066"><ele>743.2973</ele><time></time></trkpt>
        <trkpt lat="29.746776" lon="103.524013"><ele>744.62085</ele><time></time></trkpt>
        <trkpt lat="29.746807" lon="103.523968"><ele>747.55707</ele><time></time></trkpt>
        <trkpt lat="29.746833" lon="103.523924"><ele>749.28143</ele><time></time></trkpt>
        <trkpt lat="29.746869" lon="103.52388"><ele>750.9542</ele><time></time></trkpt>
        <trkpt lat="29.74688" lon="103.523826"><ele>750.2132</ele><time></time></trkpt>
        <trkpt lat="29.746926" lon="103.52383"><ele>752.091</ele><time></time></trkpt>
        <trkpt lat="29.74697" lon="103.523845"><ele>753.4447</ele><time></time></trkpt>
        <trkpt lat="29.747018" lon="103.523843"><ele>755.09186</ele><time></time></trkpt>
        <trkpt lat="29.747065" lon="103.523846"><ele>754.7035</ele><time></time></trkpt>
        <trkpt lat="29.747121" lon="103.523851"><ele>755.40857</ele><time></time></trkpt>
        <trkpt lat="29.747175" lon="103.523846"><ele>756.7552</ele><time></time></trkpt>
        <trkpt lat="29.747221" lon="103.523848"><ele>757.54486</ele><time></time></trkpt>
        <trkpt lat="29.747266" lon="103.523845"><ele>758.79205</ele><time></time></trkpt>
        <trkpt lat="29.747319" lon="103.523833"><ele>759.7487</ele><time></time></trkpt>
        <trkpt lat="29.747363" lon="103.523813"><ele>760.58984</ele><time></time></trkpt>
        <trkpt lat="29.747412" lon="103.523801"><ele>760.19214</ele><time></time></trkpt>
        <trkpt lat="29.747457" lon="103.523768"><ele>761.5031</ele><time></time></trkpt>
        <trkpt lat="29.747476" lon="103.523721"><ele>761.4228</ele><time></time></trkpt>
        <trkpt lat="29.747522" lon="103.523705"><ele>761.446</ele><time></time></trkpt>
        <trkpt lat="29.747569" lon="103.523705"><ele>760.5083</ele><time></time></trkpt>
        <trkpt lat="29.747623" lon="103.52371"><ele>761.05255</ele><time></time></trkpt>
        <trkpt lat="29.747675" lon="103.523696"><ele>760.0245</ele><time></time></trkpt>
        <trkpt lat="29.74772" lon="103.523685"><ele>760.63513</ele><time></time></trkpt>
        <trkpt lat="29.747768" lon="103.523685"><ele>760.8612</ele><time></time></trkpt>
        <trkpt lat="29.747823" lon="103.523697"><ele>759.84863</ele><time></time></trkpt>
        <trkpt lat="29.74787" lon="103.523704"><ele>758.4163</ele><time></time></trkpt>
        <trkpt lat="29.747919" lon="103.523703"><ele>758.4882</ele><time></time></trkpt>
        <trkpt lat="29.747962" lon="103.523678"><ele>757.4086</ele><time></time></trkpt>
        <trkpt lat="29.748012" lon="103.523703"><ele>756.2051</ele><time></time></trkpt>
        <trkpt lat="29.748058" lon="103.523729"><ele>756.8811</ele><time></time></trkpt>
        <trkpt lat="29.7481" lon="103.523766"><ele>758.0572</ele><time></time></trkpt>
        <trkpt lat="29.748139" lon="103.523795"><ele>758.25836</ele><time></time></trkpt>
        <trkpt lat="29.748191" lon="103.523799"><ele>759.85004</ele><time></time></trkpt>
        <trkpt lat="29.748242" lon="103.523788"><ele>761.19464</ele><time></time></trkpt>
        <trkpt lat="29.74829" lon="103.523775"><ele>761.9734</ele><time></time></trkpt>
        <trkpt lat="29.748337" lon="103.523784"><ele>761.60364</ele><time></time></trkpt>
        <trkpt lat="29.748385" lon="103.523802"><ele>761.02826</ele><time></time></trkpt>
        <trkpt lat="29.74843" lon="103.523828"><ele>762.4394</ele><time></time></trkpt>
        <trkpt lat="29.748479" lon="103.523834"><ele>763.84955</ele><time></time></trkpt>
        <trkpt lat="29.748524" lon="103.523824"><ele>764.84296</ele><time></time></trkpt>
        <trkpt lat="29.748573" lon="103.523806"><ele>764.3253</ele><time></time></trkpt>
        <trkpt lat="29.748624" lon="103.523805"><ele>765.4105</ele><time></time></trkpt>
        <trkpt lat="29.748664" lon="103.523843"><ele>766.2073</ele><time></time></trkpt>
        <trkpt lat="29.748696" lon="103.523889"><ele>766.4279</ele><time></time></trkpt>
        <trkpt lat="29.748734" lon="103.523928"><ele>766.05457</ele><time></time></trkpt>
        <trkpt lat="29.748778" lon="103.523964"><ele>765.45886</ele><time></time></trkpt>
        <trkpt lat="29.748826" lon="103.523978"><ele>764.176</ele><time></time></trkpt>
        <trkpt lat="29.748873" lon="103.523974"><ele>763.533</ele><time></time></trkpt>
        <trkpt lat="29.748909" lon="103.524013"><ele>763.63153</ele><time></time></trkpt>
        <trkpt lat="29.748951" lon="103.524041"><ele>763.4578</ele><time></time></trkpt>
        <trkpt lat="29.748998" lon="103.524068"><ele>763.572</ele><time></time></trkpt>
        <trkpt lat="29.749045" lon="103.524068"><ele>764.5935</ele><time></time></trkpt>
        <trkpt lat="29.749086" lon="103.524041"><ele>764.37177</ele><time></time></trkpt>
        <trkpt lat="29.749133" lon="103.524014"><ele>763.786</ele><time></time></trkpt>
        <trkpt lat="29.749182" lon="103.523995"><ele>762.8125</ele><time></time></trkpt>
        <trkpt lat="29.749233" lon="103.52399"><ele>761.3996</ele><time></time></trkpt>
        <trkpt lat="29.749287" lon="103.524015"><ele>760.03955</ele><time></time></trkpt>
        <trkpt lat="29.749338" lon="103.524034"><ele>759.62427</ele><time></time></trkpt>
        <trkpt lat="29.749377" lon="103.523996"><ele>759.14044</ele><time></time></trkpt>
        <trkpt lat="29.749408" lon="103.523954"><ele>758.2236</ele><time></time></trkpt>
        <trkpt lat="29.749455" lon="103.523941"><ele>757.2872</ele><time></time></trkpt>
        <trkpt lat="29.749508" lon="103.523929"><ele>756.3537</ele><time></time></trkpt>
        <trkpt lat="29.749562" lon="103.523947"><ele>755.25146</ele><time></time></trkpt>
        <trkpt lat="29.749602" lon="103.523971"><ele>755.075</ele><time></time></trkpt>
        <trkpt lat="29.74965" lon="103.523968"><ele>755.5267</ele><time></time></trkpt>
        <trkpt lat="29.749679" lon="103.523919"><ele>756.9739</ele><time></time></trkpt>
        <trkpt lat="29.749691" lon="103.523859"><ele>757.4524</ele><time></time></trkpt>
        <trkpt lat="29.749709" lon="103.523798"><ele>756.54285</ele><time></time></trkpt>
        <trkpt lat="29.749731" lon="103.523752"><ele>755.44214</ele><time></time></trkpt>
        <trkpt lat="29.749753" lon="103.523701"><ele>752.2297</ele><time></time></trkpt>
        <trkpt lat="29.749795" lon="103.523677"><ele>750.5582</ele><time></time></trkpt>
        <trkpt lat="29.749842" lon="103.523673"><ele>749.4639</ele><time></time></trkpt>
        <trkpt lat="29.749885" lon="103.52371"><ele>746.2742</ele><time></time></trkpt>
        <trkpt lat="29.749928" lon="103.523757"><ele>744.4727</ele><time></time></trkpt>
        <trkpt lat="29.749975" lon="103.523739"><ele>741.8775</ele><time></time></trkpt>
        <trkpt lat="29.750022" lon="103.523729"><ele>742.4849</ele><time></time></trkpt>
        <trkpt lat="29.75008" lon="103.523706"><ele>743.3388</ele><time></time></trkpt>
        <trkpt lat="29.750136" lon="103.523694"><ele>743.7427</ele><time></time></trkpt>
        <trkpt lat="29.750173" lon="103.523656"><ele>744.94293</ele><time></time></trkpt>
        <trkpt lat="29.750181" lon="103.523596"><ele>745.8363</ele><time></time></trkpt>
        <trkpt lat="29.750167" lon="103.523542"><ele>745.0084</ele><time></time></trkpt>
        <trkpt lat="29.750213" lon="103.523506"><ele>744.146</ele><time></time></trkpt>
        <trkpt lat="29.750187" lon="103.523456"><ele>739.31885</ele><time></time></trkpt>
        <trkpt lat="29.750231" lon="103.523441"><ele>738.0186</ele><time></time></trkpt>
        <trkpt lat="29.750275" lon="103.523428"><ele>737.4445</ele><time></time></trkpt>
        <trkpt lat="29.750319" lon="103.52339"><ele>736.30646</ele><time></time></trkpt>
        <trkpt lat="29.750319" lon="103.523332"><ele>735.0187</ele><time></time></trkpt>
        <trkpt lat="29.750301" lon="103.523281"><ele>734.59393</ele><time></time></trkpt>
        <trkpt lat="29.750291" lon="103.523209"><ele>733.4221</ele><time></time></trkpt>
        <trkpt lat="29.750276" lon="103.523157"><ele>735.8031</ele><time></time></trkpt>
        <trkpt lat="29.750314" lon="103.523123"><ele>737.45166</ele><time></time></trkpt>
        <trkpt lat="29.750362" lon="103.523119"><ele>738.71985</ele><time></time></trkpt>
        <trkpt lat="29.750316" lon="103.523134"><ele>736.37695</ele><time></time></trkpt>
        <trkpt lat="29.750275" lon="103.523112"><ele>736.8579</ele><time></time></trkpt>
        <trkpt lat="29.750262" lon="103.52306"><ele>733.0661</ele><time></time></trkpt>
        <trkpt lat="29.750229" lon="103.523024"><ele>729.3703</ele><time></time></trkpt>
        <trkpt lat="29.750201" lon="103.522981"><ele>728.6878</ele><time></time></trkpt>
        <trkpt lat="29.750193" lon="103.522924"><ele>724.9743</ele><time></time></trkpt>
        <trkpt lat="29.75016" lon="103.522885"><ele>722.6161</ele><time></time></trkpt>
        <trkpt lat="29.750126" lon="103.522844"><ele>719.54004</ele><time></time></trkpt>
        <trkpt lat="29.750114" lon="103.522794"><ele>712.9658</ele><time></time></trkpt>
        <trkpt lat="29.75008" lon="103.522754"><ele>709.0689</ele><time></time></trkpt>
        <trkpt lat="29.750049" lon="103.522715"><ele>705.6829</ele><time></time></trkpt>
        <trkpt lat="29.750039" lon="103.522663"><ele>704.94965</ele><time></time></trkpt>
        <trkpt lat="29.749996" lon="103.52263"><ele>703.561</ele><time></time></trkpt>
        <trkpt lat="29.749967" lon="103.522587"><ele>703.344</ele><time></time></trkpt>
        <trkpt lat="29.749932" lon="103.522544"><ele>700.222</ele><time></time></trkpt>
        <trkpt lat="29.749893" lon="103.522511"><ele>699.8618</ele><time></time></trkpt>
        <trkpt lat="29.749856" lon="103.52254"><ele>695.84644</ele><time></time></trkpt>
        <trkpt lat="29.749845" lon="103.522488"><ele>692.9019</ele><time></time></trkpt>
        <trkpt lat="29.749841" lon="103.522431"><ele>693.02875</ele><time></time></trkpt>
        <trkpt lat="29.749799" lon="103.522459"><ele>691.68866</ele><time></time></trkpt>
        <trkpt lat="29.74977" lon="103.522417"><ele>687.933</ele><time></time></trkpt>
        <trkpt lat="29.749811" lon="103.52238"><ele>685.80255</ele><time></time></trkpt>
        <trkpt lat="29.749834" lon="103.522334"><ele>684.15375</ele><time></time></trkpt>
        <trkpt lat="29.749884" lon="103.522318"><ele>680.15784</ele><time></time></trkpt>
        <trkpt lat="29.749869" lon="103.522256"><ele>677.49677</ele><time></time></trkpt>
        <trkpt lat="29.749874" lon="103.522198"><ele>676.77527</ele><time></time></trkpt>
        <trkpt lat="29.749851" lon="103.522153"><ele>673.1064</ele><time></time></trkpt>
        <trkpt lat="29.749837" lon="103.522097"><ele>671.20306</ele><time></time></trkpt>
        <trkpt lat="29.749791" lon="103.522092"><ele>670.444</ele><time></time></trkpt>
        <trkpt lat="29.749737" lon="103.522106"><ele>671.3138</ele><time></time></trkpt>
        <trkpt lat="29.749684" lon="103.522134"><ele>671.4794</ele><time></time></trkpt>
        <trkpt lat="29.749639" lon="103.522155"><ele>670.57733</ele><time></time></trkpt>
        <trkpt lat="29.749607" lon="103.522106"><ele>669.31146</ele><time></time></trkpt>
        <trkpt lat="29.749604" lon="103.522046"><ele>667.47</ele><time></time></trkpt>
        <trkpt lat="29.749592" lon="103.521987"><ele>665.9248</ele><time></time></trkpt>
        <trkpt lat="29.749582" lon="103.521931"><ele>664.8593</ele><time></time></trkpt>
        <trkpt lat="29.749629" lon="103.521904"><ele>663.6594</ele><time></time></trkpt>
        <trkpt lat="29.749678" lon="103.52189"><ele>665.5681</ele><time></time></trkpt>
        <trkpt lat="29.749718" lon="103.521856"><ele>668.58105</ele><time></time></trkpt>
        <trkpt lat="29.749762" lon="103.52182"><ele>667.8172</ele><time></time></trkpt>
        <trkpt lat="29.749805" lon="103.521782"><ele>666.24713</ele><time></time></trkpt>
        <trkpt lat="29.749847" lon="103.521741"><ele>667.3345</ele><time></time></trkpt>
        <trkpt lat="29.749892" lon="103.521715"><ele>668.40607</ele><time></time></trkpt>
        <trkpt lat="29.74993" lon="103.521686"><ele>668.03925</ele><time></time></trkpt>
        <trkpt lat="29.749977" lon="103.521641"><ele>667.68604</ele><time></time></trkpt>
        <trkpt lat="29.750015" lon="103.521614"><ele>667.6001</ele><time></time></trkpt>
        <trkpt lat="29.750061" lon="103.521587"><ele>668.2641</ele><time></time></trkpt>
        <trkpt lat="29.750097" lon="103.521556"><ele>668.75964</ele><time></time></trkpt>
        <trkpt lat="29.750143" lon="103.521543"><ele>668.69305</ele><time></time></trkpt>
        <trkpt lat="29.750186" lon="103.521515"><ele>669.73004</ele><time></time></trkpt>
        <trkpt lat="29.750234" lon="103.521495"><ele>669.8549</ele><time></time></trkpt>
        <trkpt lat="29.750278" lon="103.521481"><ele>671.0326</ele><time></time></trkpt>
        <trkpt lat="29.750328" lon="103.521449"><ele>672.6938</ele><time></time></trkpt>
        <trkpt lat="29.750368" lon="103.521424"><ele>673.19836</ele><time></time></trkpt>
        <trkpt lat="29.750409" lon="103.521394"><ele>672.53613</ele><time></time></trkpt>
        <trkpt lat="29.750452" lon="103.521372"><ele>672.3973</ele><time></time></trkpt>
        <trkpt lat="29.750506" lon="103.521349"><ele>671.4028</ele><time></time></trkpt>
        <trkpt lat="29.750556" lon="103.521327"><ele>670.46136</ele><time></time></trkpt>
        <trkpt lat="29.750607" lon="103.521342"><ele>672.3226</ele><time></time></trkpt>
        <trkpt lat="29.750641" lon="103.521391"><ele>671.8488</ele><time></time></trkpt>
        <trkpt lat="29.750655" lon="103.521441"><ele>671.9238</ele><time></time></trkpt>
        <trkpt lat="29.750686" lon="103.521496"><ele>671.6127</ele><time></time></trkpt>
        <trkpt lat="29.750743" lon="103.521482"><ele>672.61005</ele><time></time></trkpt>
        <trkpt lat="29.750782" lon="103.521438"><ele>671.6041</ele><time></time></trkpt>
        <trkpt lat="29.750832" lon="103.521417"><ele>672.3647</ele><time></time></trkpt>
        <trkpt lat="29.75088" lon="103.521405"><ele>673.8096</ele><time></time></trkpt>
        <trkpt lat="29.750916" lon="103.521371"><ele>674.77844</ele><time></time></trkpt>
        <trkpt lat="29.750964" lon="103.52136"><ele>675.64795</ele><time></time></trkpt>
        <trkpt lat="29.751008" lon="103.521345"><ele>675.2616</ele><time></time></trkpt>
        <trkpt lat="29.751058" lon="103.521332"><ele>674.5032</ele><time></time></trkpt>
        <trkpt lat="29.751103" lon="103.521327"><ele>675.23627</ele><time></time></trkpt>
        <trkpt lat="29.751144" lon="103.521359"><ele>674.88635</ele><time></time></trkpt>
        <trkpt lat="29.75117" lon="103.521406"><ele>675.06744</ele><time></time></trkpt>
        <trkpt lat="29.75119" lon="103.521459"><ele>673.78577</ele><time></time></trkpt>
        <trkpt lat="29.751229" lon="103.521502"><ele>672.63104</ele><time></time></trkpt>
        <trkpt lat="29.751273" lon="103.521527"><ele>672.27167</ele><time></time></trkpt>
        <trkpt lat="29.751326" lon="103.521544"><ele>672.06274</ele><time></time></trkpt>
        <trkpt lat="29.751376" lon="103.52153"><ele>671.89606</ele><time></time></trkpt>
        <trkpt lat="29.751421" lon="103.521486"><ele>672.22266</ele><time></time></trkpt>
        <trkpt lat="29.751463" lon="103.521463"><ele>671.9947</ele><time></time></trkpt>
        <trkpt lat="29.751518" lon="103.521462"><ele>672.58307</ele><time></time></trkpt>
        <trkpt lat="29.751564" lon="103.521485"><ele>672.7295</ele><time></time></trkpt>
        <trkpt lat="29.751598" lon="103.52152"><ele>673.2165</ele><time></time></trkpt>
        <trkpt lat="29.75164" lon="103.52154"><ele>674.2778</ele><time></time></trkpt>
        <trkpt lat="29.751685" lon="103.521561"><ele>674.5078</ele><time></time></trkpt>
        <trkpt lat="29.75173" lon="103.521572"><ele>674.3088</ele><time></time></trkpt>
        <trkpt lat="29.75178" lon="103.521578"><ele>674.9605</ele><time></time></trkpt>
        <trkpt lat="29.751825" lon="103.521584"><ele>674.66595</ele><time></time></trkpt>
        <trkpt lat="29.751875" lon="103.521583"><ele>675.24927</ele><time></time></trkpt>
        <trkpt lat="29.751929" lon="103.521584"><ele>675.6858</ele><time></time></trkpt>
        <trkpt lat="29.751978" lon="103.521601"><ele>676.4962</ele><time></time></trkpt>
        <trkpt lat="29.752026" lon="103.521596"><ele>677.6309</ele><time></time></trkpt>
        <trkpt lat="29.752078" lon="103.521599"><ele>678.2717</ele><time></time></trkpt>
        <trkpt lat="29.752123" lon="103.521591"><ele>677.84784</ele><time></time></trkpt>
        <trkpt lat="29.752164" lon="103.521555"><ele>677.79114</ele><time></time></trkpt>
        <trkpt lat="29.752217" lon="103.521539"><ele>678.6509</ele><time></time></trkpt>
        <trkpt lat="29.752267" lon="103.52155"><ele>679.1685</ele><time></time></trkpt>
        <trkpt lat="29.752307" lon="103.52158"><ele>678.11835</ele><time></time></trkpt>
        <trkpt lat="29.752342" lon="103.521615"><ele>674.7259</ele><time></time></trkpt>
        <trkpt lat="29.752389" lon="103.521644"><ele>669.87695</ele><time></time></trkpt>
        <trkpt lat="29.752381" lon="103.521698"><ele>669.09436</ele><time></time></trkpt>
        <trkpt lat="29.752361" lon="103.521754"><ele>668.2567</ele><time></time></trkpt>
        <trkpt lat="29.752361" lon="103.521826"><ele>669.7798</ele><time></time></trkpt>
        <trkpt lat="29.752321" lon="103.521851"><ele>667.0141</ele><time></time></trkpt>
        <trkpt lat="29.752368" lon="103.521863"><ele>671.9328</ele><time></time></trkpt>
        <trkpt lat="29.752323" lon="103.521888"><ele>667.81384</ele><time></time></trkpt>
        <trkpt lat="29.752371" lon="103.521894"><ele>672.2244</ele><time></time></trkpt>
        <trkpt lat="29.752413" lon="103.521932"><ele>669.86053</ele><time></time></trkpt>
        <trkpt lat="29.752366" lon="103.521906"><ele>669.4533</ele><time></time></trkpt>
        <trkpt lat="29.75233" lon="103.521945"><ele>671.38116</ele><time></time></trkpt>
        <trkpt lat="29.75228" lon="103.521897"><ele>668.9636</ele><time></time></trkpt>
        <trkpt lat="29.75228" lon="103.521891"><ele>667.91376</ele><time></time></trkpt>
        <trkpt lat="29.752254" lon="103.521896"><ele>667.5511</ele><time></time></trkpt>
        <trkpt lat="29.752303" lon="103.521911"><ele>668.82965</ele><time></time></trkpt>
        <trkpt lat="29.75236" lon="103.521912"><ele>670.73474</ele><time></time></trkpt>
        <trkpt lat="29.752325" lon="103.521946"><ele>670.46576</ele><time></time></trkpt>
        <trkpt lat="29.752283" lon="103.521905"><ele>667.8811</ele><time></time></trkpt>
        <trkpt lat="29.752341" lon="103.521902"><ele>670.3881</ele><time></time></trkpt>
        <trkpt lat="29.752292" lon="103.52192"><ele>666.6349</ele><time></time></trkpt>
        <trkpt lat="29.752244" lon="103.521905"><ele>667.7099</ele><time></time></trkpt>
        <trkpt lat="29.752356" lon="103.522002"><ele>671.7148</ele><time></time></trkpt>
        <trkpt lat="29.752273" lon="103.52204"><ele>669.94965</ele><time></time></trkpt>
        <trkpt lat="29.752471" lon="103.521851"><ele>675.318</ele><time></time></trkpt>
        <trkpt lat="29.75257" lon="103.521834"><ele>675.44336</ele><time></time></trkpt>
        <trkpt lat="29.752514" lon="103.521835"><ele>675.3854</ele><time></time></trkpt>
        <trkpt lat="29.752477" lon="103.521943"><ele>673.8837</ele><time></time></trkpt>
        <trkpt lat="29.752567" lon="103.521955"><ele>668.34174</ele><time></time></trkpt>
        <trkpt lat="29.75263" lon="103.521912"><ele>668.418</ele><time></time></trkpt>
        <trkpt lat="29.752446" lon="103.521905"><ele>660.1054</ele><time></time></trkpt>
        <trkpt lat="29.752487" lon="103.521879"><ele>656.6803</ele><time></time></trkpt>
        <trkpt lat="29.752516" lon="103.52184"><ele>650.30835</ele><time></time></trkpt>
        <trkpt lat="29.752553" lon="103.521744"><ele>651.2976</ele><time></time></trkpt>
        <trkpt lat="29.752568" lon="103.521797"><ele>649.92114</ele><time></time></trkpt>
        <trkpt lat="29.752523" lon="103.521783"><ele>640.9668</ele><time></time></trkpt>
        <trkpt lat="29.75257" lon="103.521779"><ele>639.5343</ele><time></time></trkpt>
        <trkpt lat="29.752606" lon="103.521744"><ele>634.6872</ele><time></time></trkpt>
        <trkpt lat="29.752643" lon="103.521775"><ele>628.7926</ele><time></time></trkpt>
        <trkpt lat="29.752688" lon="103.521784"><ele>626.82495</ele><time></time></trkpt>
        <trkpt lat="29.752738" lon="103.521788"><ele>623.8263</ele><time></time></trkpt>
        <trkpt lat="29.752754" lon="103.521734"><ele>623.91187</ele><time></time></trkpt>
        <trkpt lat="29.752805" lon="103.521733"><ele>623.31165</ele><time></time></trkpt>
        <trkpt lat="29.752848" lon="103.521752"><ele>621.9867</ele><time></time></trkpt>
        <trkpt lat="29.752888" lon="103.521778"><ele>620.541</ele><time></time></trkpt>
        <trkpt lat="29.752935" lon="103.521793"><ele>616.5918</ele><time></time></trkpt>
        <trkpt lat="29.752974" lon="103.521821"><ele>612.49506</ele><time></time></trkpt>
        <trkpt lat="29.753019" lon="103.521847"><ele>608.71765</ele><time></time></trkpt>
        <trkpt lat="29.753064" lon="103.521859"><ele>606.7684</ele><time></time></trkpt>
        <trkpt lat="29.753108" lon="103.521883"><ele>603.9278</ele><time></time></trkpt>
        <trkpt lat="29.75316" lon="103.521872"><ele>601.1791</ele><time></time></trkpt>
        <trkpt lat="29.753209" lon="103.521873"><ele>599.8004</ele><time></time></trkpt>
        <trkpt lat="29.753261" lon="103.521872"><ele>598.6487</ele><time></time></trkpt>
        <trkpt lat="29.753302" lon="103.521908"><ele>596.436</ele><time></time></trkpt>
        <trkpt lat="29.753346" lon="103.521931"><ele>594.8578</ele><time></time></trkpt>
        <trkpt lat="29.753391" lon="103.52195"><ele>592.91364</ele><time></time></trkpt>
        <trkpt lat="29.753441" lon="103.521966"><ele>590.30865</ele><time></time></trkpt>
        <trkpt lat="29.753486" lon="103.521972"><ele>588.6923</ele><time></time></trkpt>
        <trkpt lat="29.753531" lon="103.521985"><ele>587.1007</ele><time></time></trkpt>
        <trkpt lat="29.753575" lon="103.522004"><ele>585.36707</ele><time></time></trkpt>
        <trkpt lat="29.753622" lon="103.522031"><ele>581.8676</ele><time></time></trkpt>
        <trkpt lat="29.753665" lon="103.522051"><ele>581.0127</ele><time></time></trkpt>
        <trkpt lat="29.753706" lon="103.522072"><ele>579.5517</ele><time></time></trkpt>
        <trkpt lat="29.753754" lon="103.522099"><ele>577.9111</ele><time></time></trkpt>
        <trkpt lat="29.753796" lon="103.522129"><ele>576.7697</ele><time></time></trkpt>
        <trkpt lat="29.753847" lon="103.522141"><ele>576.1997</ele><time></time></trkpt>
        <trkpt lat="29.75389" lon="103.522157"><ele>576.54767</ele><time></time></trkpt>
        <trkpt lat="29.753938" lon="103.522149"><ele>575.60095</ele><time></time></trkpt>
        <trkpt lat="29.753988" lon="103.522134"><ele>575.00446</ele><time></time></trkpt>
        <trkpt lat="29.75402" lon="103.522092"><ele>573.99915</ele><time></time></trkpt>
        <trkpt lat="29.754067" lon="103.522117"><ele>571.0997</ele><time></time></trkpt>
        <trkpt lat="29.754098" lon="103.522163"><ele>569.7846</ele><time></time></trkpt>
        <trkpt lat="29.754121" lon="103.522213"><ele>567.9817</ele><time></time></trkpt>
        <trkpt lat="29.754108" lon="103.522278"><ele>566.62683</ele><time></time></trkpt>
        <trkpt lat="29.75412" lon="103.522328"><ele>565.6442</ele><time></time></trkpt>
        <trkpt lat="29.754108" lon="103.522378"><ele>565.05493</ele><time></time></trkpt>
        <trkpt lat="29.754101" lon="103.522439"><ele>563.70593</ele><time></time></trkpt>
        <trkpt lat="29.754112" lon="103.522498"><ele>563.81726</ele><time></time></trkpt>
        <trkpt lat="29.754117" lon="103.522555"><ele>562.9681</ele><time></time></trkpt>
        <trkpt lat="29.75412" lon="103.522616"><ele>562.6439</ele><time></time></trkpt>
        <trkpt lat="29.754122" lon="103.522682"><ele>563.52155</ele><time></time></trkpt>
        <trkpt lat="29.75411" lon="103.522745"><ele>564.9477</ele><time></time></trkpt>
        <trkpt lat="29.754102" lon="103.522802"><ele>566.0551</ele><time></time></trkpt>
        <trkpt lat="29.754102" lon="103.522862"><ele>564.5601</ele><time></time></trkpt>
        <trkpt lat="29.754094" lon="103.522918"><ele>564.84406</ele><time></time></trkpt>
        <trkpt lat="29.75409" lon="103.522976"><ele>562.1279</ele><time></time></trkpt>
        <trkpt lat="29.754091" lon="103.523031"><ele>560.674</ele><time></time></trkpt>
        <trkpt lat="29.754093" lon="103.523084"><ele>559.2552</ele><time></time></trkpt>
        <trkpt lat="29.754088" lon="103.523139"><ele>558.199</ele><time></time></trkpt>
        <trkpt lat="29.754094" lon="103.523196"><ele>558.57007</ele><time></time></trkpt>
        <trkpt lat="29.75413" lon="103.523244"><ele>558.4721</ele><time></time></trkpt>
        <trkpt lat="29.754173" lon="103.523288"><ele>558.02405</ele><time></time></trkpt>
        <trkpt lat="29.754198" lon="103.523339"><ele>556.4809</ele><time></time></trkpt>
        <trkpt lat="29.754227" lon="103.523384"><ele>556.0445</ele><time></time></trkpt>
        <trkpt lat="29.754262" lon="103.52342"><ele>554.98804</ele><time></time></trkpt>
        <trkpt lat="29.754294" lon="103.523468"><ele>555.4026</ele><time></time></trkpt>
        <trkpt lat="29.754312" lon="103.523522"><ele>554.5071</ele><time></time></trkpt>
        <trkpt lat="29.754345" lon="103.523571"><ele>554.923</ele><time></time></trkpt>
        <trkpt lat="29.754362" lon="103.523626"><ele>554.4829</ele><time></time></trkpt>
        <trkpt lat="29.754389" lon="103.52367"><ele>553.24927</ele><time></time></trkpt>
        <trkpt lat="29.754425" lon="103.523714"><ele>552.6255</ele><time></time></trkpt>
        <trkpt lat="29.754446" lon="103.523762"><ele>552.92645</ele><time></time></trkpt>
        <trkpt lat="29.754469" lon="103.523811"><ele>552.133</ele><time></time></trkpt>
        <trkpt lat="29.754499" lon="103.523862"><ele>551.97595</ele><time></time></trkpt>
        <trkpt lat="29.754515" lon="103.523915"><ele>552.7912</ele><time></time></trkpt>
        <trkpt lat="29.754533" lon="103.523976"><ele>552.8312</ele><time></time></trkpt>
        <trkpt lat="29.754543" lon="103.524029"><ele>552.4595</ele><time></time></trkpt>
        <trkpt lat="29.754547" lon="103.524083"><ele>551.8405</ele><time></time></trkpt>
        <trkpt lat="29.754528" lon="103.524132"><ele>550.27045</ele><time></time></trkpt>
        <trkpt lat="29.754512" lon="103.52418"><ele>548.6716</ele><time></time></trkpt>
        <trkpt lat="29.754495" lon="103.524234"><ele>547.2214</ele><time></time></trkpt>
        <trkpt lat="29.754479" lon="103.524287"><ele>547.0464</ele><time></time></trkpt>
        <trkpt lat="29.754467" lon="103.524346"><ele>547.1954</ele><time></time></trkpt>
        <trkpt lat="29.754465" lon="103.524403"><ele>547.28656</ele><time></time></trkpt>
        <trkpt lat="29.754469" lon="103.524455"><ele>546.59174</ele><time></time></trkpt>
        <trkpt lat="29.754493" lon="103.524503"><ele>545.46875</ele><time></time></trkpt>
        <trkpt lat="29.754508" lon="103.524568"><ele>546.2251</ele><time></time></trkpt>
        <trkpt lat="29.754499" lon="103.524629"><ele>545.0217</ele><time></time></trkpt>
        <trkpt lat="29.75451" lon="103.524692"><ele>545.691</ele><time></time></trkpt>
        <trkpt lat="29.754508" lon="103.524746"><ele>546.0423</ele><time></time></trkpt>
        <trkpt lat="29.754489" lon="103.524801"><ele>542.88727</ele><time></time></trkpt>
        <trkpt lat="29.754452" lon="103.524847"><ele>545.66113</ele><time></time></trkpt>
        <trkpt lat="29.754401" lon="103.524871"><ele>546.54944</ele><time></time></trkpt>
        <trkpt lat="29.754368" lon="103.524912"><ele>544.65106</ele><time></time></trkpt>
        <trkpt lat="29.754357" lon="103.524966"><ele>544.41766</ele><time></time></trkpt>
        <trkpt lat="29.754363" lon="103.525017"><ele>544.1499</ele><time></time></trkpt>
        <trkpt lat="29.754379" lon="103.525079"><ele>543.2558</ele><time></time></trkpt>
        <trkpt lat="29.75441" lon="103.525124"><ele>543.01935</ele><time></time></trkpt>
        <trkpt lat="29.754432" lon="103.525171"><ele>541.2771</ele><time></time></trkpt>
        <trkpt lat="29.754435" lon="103.52523"><ele>542.4466</ele><time></time></trkpt>
        <trkpt lat="29.754409" lon="103.525287"><ele>541.77606</ele><time></time></trkpt>
        <trkpt lat="29.754389" lon="103.525341"><ele>540.594</ele><time></time></trkpt>
        <trkpt lat="29.75437" lon="103.525395"><ele>539.4523</ele><time></time></trkpt>
        <trkpt lat="29.75436" lon="103.525454"><ele>538.4172</ele><time></time></trkpt>
        <trkpt lat="29.754341" lon="103.52551"><ele>537.46063</ele><time></time></trkpt>
        <trkpt lat="29.754333" lon="103.525567"><ele>536.0289</ele><time></time></trkpt>
        <trkpt lat="29.754335" lon="103.525629"><ele>536.37866</ele><time></time></trkpt>
        <trkpt lat="29.75433" lon="103.525689"><ele>535.7289</ele><time></time></trkpt>
        <trkpt lat="29.754356" lon="103.525735"><ele>537.4193</ele><time></time></trkpt>
        <trkpt lat="29.754395" lon="103.525785"><ele>534.01025</ele><time></time></trkpt>
        <trkpt lat="29.754434" lon="103.525833"><ele>534.3511</ele><time></time></trkpt>
        <trkpt lat="29.754455" lon="103.525891"><ele>532.836</ele><time></time></trkpt>
        <trkpt lat="29.754471" lon="103.525947"><ele>531.3503</ele><time></time></trkpt>
        <trkpt lat="29.754469" lon="103.526002"><ele>529.57025</ele><time></time></trkpt>
        <trkpt lat="29.754452" lon="103.526058"><ele>528.7725</ele><time></time></trkpt>
        <trkpt lat="29.754439" lon="103.526118"><ele>527.7641</ele><time></time></trkpt>
        <trkpt lat="29.754446" lon="103.526181"><ele>526.89703</ele><time></time></trkpt>
        <trkpt lat="29.754436" lon="103.526241"><ele>526.5681</ele><time></time></trkpt>
        <trkpt lat="29.754442" lon="103.526293"><ele>526.2132</ele><time></time></trkpt>
        <trkpt lat="29.754444" lon="103.526346"><ele>526.21716</ele><time></time></trkpt>
        <trkpt lat="29.754444" lon="103.526408"><ele>526.08325</ele><time></time></trkpt>
        <trkpt lat="29.754443" lon="103.52646"><ele>525.99963</ele><time></time></trkpt>
        <trkpt lat="29.754432" lon="103.526515"><ele>524.8446</ele><time></time></trkpt>
        <trkpt lat="29.754418" lon="103.526568"><ele>523.9896</ele><time></time></trkpt>
        <trkpt lat="29.754404" lon="103.526617"><ele>523.83356</ele><time></time></trkpt>
        <trkpt lat="29.754398" lon="103.526676"><ele>523.8098</ele><time></time></trkpt>
        <trkpt lat="29.75439" lon="103.526731"><ele>523.7098</ele><time></time></trkpt>
        <trkpt lat="29.754374" lon="103.52679"><ele>524.4361</ele><time></time></trkpt>
        <trkpt lat="29.754369" lon="103.526848"><ele>524.0338</ele><time></time></trkpt>
        <trkpt lat="29.754358" lon="103.526905"><ele>522.68896</ele><time></time></trkpt>
        <trkpt lat="29.754342" lon="103.526956"><ele>521.7739</ele><time></time></trkpt>
        <trkpt lat="29.754327" lon="103.52701"><ele>521.4296</ele><time></time></trkpt>
        <trkpt lat="29.754319" lon="103.527062"><ele>520.9712</ele><time></time></trkpt>
        <trkpt lat="29.754325" lon="103.527115"><ele>520.0088</ele><time></time></trkpt>
        <trkpt lat="29.754348" lon="103.527177"><ele>519.6059</ele><time></time></trkpt>
        <trkpt lat="29.75437" lon="103.527229"><ele>519.35345</ele><time></time></trkpt>
        <trkpt lat="29.754391" lon="103.527275"><ele>519.02374</ele><time></time></trkpt>
        <trkpt lat="29.754417" lon="103.527323"><ele>518.6081</ele><time></time></trkpt>
        <trkpt lat="29.754447" lon="103.527363"><ele>519.0489</ele><time></time></trkpt>
        <trkpt lat="29.754491" lon="103.527387"><ele>518.5154</ele><time></time></trkpt>
        <trkpt lat="29.75454" lon="103.527395"><ele>517.52655</ele><time></time></trkpt>
        <trkpt lat="29.754598" lon="103.527405"><ele>516.4267</ele><time></time></trkpt>
        <trkpt lat="29.754646" lon="103.527419"><ele>516.1385</ele><time></time></trkpt>
        <trkpt lat="29.754693" lon="103.527447"><ele>516.9351</ele><time></time></trkpt>
        <trkpt lat="29.754743" lon="103.527471"><ele>516.1005</ele><time></time></trkpt>
        <trkpt lat="29.754772" lon="103.527513"><ele>513.4968</ele><time></time></trkpt>
        <trkpt lat="29.754781" lon="103.527566"><ele>512.39087</ele><time></time></trkpt>
        <trkpt lat="29.754799" lon="103.527624"><ele>512.4133</ele><time></time></trkpt>
        <trkpt lat="29.754809" lon="103.527683"><ele>511.61862</ele><time></time></trkpt>
        <trkpt lat="29.754806" lon="103.527739"><ele>511.06393</ele><time></time></trkpt>
        <trkpt lat="29.754794" lon="103.527791"><ele>511.40668</ele><time></time></trkpt>
        <trkpt lat="29.754766" lon="103.527836"><ele>510.8458</ele><time></time></trkpt>
        <trkpt lat="29.754739" lon="103.527893"><ele>509.47504</ele><time></time></trkpt>
        <trkpt lat="29.754715" lon="103.527938"><ele>509.53897</ele><time></time></trkpt>
        <trkpt lat="29.754693" lon="103.527997"><ele>509.20236</ele><time></time></trkpt>
        <trkpt lat="29.754656" lon="103.528035"><ele>508.31793</ele><time></time></trkpt>
        <trkpt lat="29.754644" lon="103.528089"><ele>508.41772</ele><time></time></trkpt>
        <trkpt lat="29.754614" lon="103.52814"><ele>507.5249</ele><time></time></trkpt>
        <trkpt lat="29.754582" lon="103.528185"><ele>504.3434</ele><time></time></trkpt>
        <trkpt lat="29.754563" lon="103.528244"><ele>503.60587</ele><time></time></trkpt>
        <trkpt lat="29.754551" lon="103.528302"><ele>504.36908</ele><time></time></trkpt>
        <trkpt lat="29.754522" lon="103.528351"><ele>503.25385</ele><time></time></trkpt>
        <trkpt lat="29.754498" lon="103.528395"><ele>503.45203</ele><time></time></trkpt>
        <trkpt lat="29.754473" lon="103.528443"><ele>503.1173</ele><time></time></trkpt>
        <trkpt lat="29.754449" lon="103.528493"><ele>504.46582</ele><time></time></trkpt>
        <trkpt lat="29.754446" lon="103.528555"><ele>503.65808</ele><time></time></trkpt>
        <trkpt lat="29.754468" lon="103.528608"><ele>503.78314</ele><time></time></trkpt>
        <trkpt lat="29.754496" lon="103.528652"><ele>502.06702</ele><time></time></trkpt>
        <trkpt lat="29.754513" lon="103.528706"><ele>497.49017</ele><time></time></trkpt>
        <trkpt lat="29.754546" lon="103.528745"><ele>497.31784</ele><time></time></trkpt>
        <trkpt lat="29.754564" lon="103.528801"><ele>495.5857</ele><time></time></trkpt>
        <trkpt lat="29.754583" lon="103.528855"><ele>494.49585</ele><time></time></trkpt>
        <trkpt lat="29.754601" lon="103.528907"><ele>493.357</ele><time></time></trkpt>
        <trkpt lat="29.754617" lon="103.528956"><ele>492.88318</ele><time></time></trkpt>
        <trkpt lat="29.754649" lon="103.528999"><ele>491.53763</ele><time></time></trkpt>
        <trkpt lat="29.754673" lon="103.529044"><ele>489.98987</ele><time></time></trkpt>
        <trkpt lat="29.754706" lon="103.529088"><ele>489.61542</ele><time></time></trkpt>
        <trkpt lat="29.754741" lon="103.529137"><ele>488.28116</ele><time></time></trkpt>
        <trkpt lat="29.754766" lon="103.529191"><ele>488.7281</ele><time></time></trkpt>
        <trkpt lat="29.754786" lon="103.529241"><ele>487.84195</ele><time></time></trkpt>
        <trkpt lat="29.75481" lon="103.52929"><ele>487.59973</ele><time></time></trkpt>
        <trkpt lat="29.754821" lon="103.529341"><ele>487.3063</ele><time></time></trkpt>
        <trkpt lat="29.75485" lon="103.529384"><ele>486.64694</ele><time></time></trkpt>
        <trkpt lat="29.754865" lon="103.529439"><ele>485.4064</ele><time></time></trkpt>
        <trkpt lat="29.754888" lon="103.529499"><ele>484.69946</ele><time></time></trkpt>
        <trkpt lat="29.754904" lon="103.529552"><ele>484.0965</ele><time></time></trkpt>
        <trkpt lat="29.754923" lon="103.529607"><ele>483.60675</ele><time></time></trkpt>
        <trkpt lat="29.75494" lon="103.52966"><ele>483.06357</ele><time></time></trkpt>
        <trkpt lat="29.754955" lon="103.529722"><ele>483.4583</ele><time></time></trkpt>
        <trkpt lat="29.754951" lon="103.52978"><ele>483.08417</ele><time></time></trkpt>
        <trkpt lat="29.754926" lon="103.529826"><ele>483.30545</ele><time></time></trkpt>
        <trkpt lat="29.7549" lon="103.52987"><ele>481.7765</ele><time></time></trkpt>
        <trkpt lat="29.754866" lon="103.529906"><ele>479.75906</ele><time></time></trkpt>
        <trkpt lat="29.754854" lon="103.529971"><ele>478.76508</ele><time></time></trkpt>
        <trkpt lat="29.75485" lon="103.530029"><ele>478.18936</ele><time></time></trkpt>
        <trkpt lat="29.754824" lon="103.530078"><ele>478.26642</ele><time></time></trkpt>
        <trkpt lat="29.754818" lon="103.530138"><ele>477.78152</ele><time></time></trkpt>
        <trkpt lat="29.754806" lon="103.530203"><ele>476.81607</ele><time></time></trkpt>
        <trkpt lat="29.754799" lon="103.530258"><ele>475.86172</ele><time></time></trkpt>
        <trkpt lat="29.754776" lon="103.53031"><ele>474.62958</ele><time></time></trkpt>
        <trkpt lat="29.754767" lon="103.530362"><ele>475.4438</ele><time></time></trkpt>
        <trkpt lat="29.754761" lon="103.530418"><ele>474.2351</ele><time></time></trkpt>
        <trkpt lat="29.754746" lon="103.530475"><ele>474.29517</ele><time></time></trkpt>
        <trkpt lat="29.75473" lon="103.530524"><ele>472.38882</ele><time></time></trkpt>
        <trkpt lat="29.754722" lon="103.530587"><ele>471.28738</ele><time></time></trkpt>
        <trkpt lat="29.754722" lon="103.530649"><ele>468.51123</ele><time></time></trkpt>
        <trkpt lat="29.754714" lon="103.530712"><ele>468.84644</ele><time></time></trkpt>
        <trkpt lat="29.75469" lon="103.530765"><ele>468.0226</ele><time></time></trkpt>
        <trkpt lat="29.754673" lon="103.530825"><ele>468.64853</ele><time></time></trkpt>
        <trkpt lat="29.754666" lon="103.530889"><ele>468.35153</ele><time></time></trkpt>
        <trkpt lat="29.754667" lon="103.530943"><ele>469.2101</ele><time></time></trkpt>
        <trkpt lat="29.754672" lon="103.531"><ele>468.19574</ele><time></time></trkpt>
        <trkpt lat="29.754678" lon="103.531056"><ele>468.1286</ele><time></time></trkpt>
        <trkpt lat="29.754663" lon="103.531113"><ele>467.01102</ele><time></time></trkpt>
        <trkpt lat="29.754649" lon="103.531172"><ele>465.97305</ele><time></time></trkpt>
        <trkpt lat="29.754642" lon="103.531236"><ele>465.36902</ele><time></time></trkpt>
        <trkpt lat="29.754631" lon="103.531297"><ele>464.8173</ele><time></time></trkpt>
        <trkpt lat="29.754626" lon="103.531349"><ele>463.19388</ele><time></time></trkpt>
        <trkpt lat="29.754609" lon="103.531294"><ele>456.3639</ele><time></time></trkpt>
        <trkpt lat="29.754634" lon="103.53134"><ele>459.2814</ele><time></time></trkpt>
        <trkpt lat="29.754588" lon="103.531354"><ele>458.86664</ele><time></time></trkpt>
        <trkpt lat="29.754595" lon="103.53141"><ele>459.69998</ele><time></time></trkpt>
        <trkpt lat="29.754585" lon="103.53148"><ele>459.56424</ele><time></time></trkpt>
        <trkpt lat="29.754582" lon="103.531537"><ele>461.25275</ele><time></time></trkpt>
        <trkpt lat="29.754575" lon="103.531589"><ele>456.86774</ele><time></time></trkpt>
        <trkpt lat="29.754569" lon="103.531642"><ele>457.46124</ele><time></time></trkpt>
        <trkpt lat="29.754561" lon="103.531699"><ele>456.2828</ele><time></time></trkpt>
        <trkpt lat="29.75455" lon="103.531749"><ele>453.92267</ele><time></time></trkpt>
        <trkpt lat="29.754531" lon="103.5318"><ele>451.62854</ele><time></time></trkpt>
        <trkpt lat="29.754512" lon="103.531848"><ele>450.99536</ele><time></time></trkpt>
        <trkpt lat="29.754521" lon="103.5319"><ele>449.52106</ele><time></time></trkpt>
        <trkpt lat="29.754528" lon="103.531953"><ele>449.32343</ele><time></time></trkpt>
        <trkpt lat="29.754537" lon="103.532013"><ele>449.7042</ele><time></time></trkpt>
        <trkpt lat="29.754565" lon="103.532059"><ele>450.45132</ele><time></time></trkpt>
        <trkpt lat="29.754583" lon="103.532119"><ele>447.93604</ele><time></time></trkpt>
        <trkpt lat="29.754595" lon="103.532174"><ele>446.6412</ele><time></time></trkpt>
        <trkpt lat="29.754581" lon="103.532226"><ele>445.61087</ele><time></time></trkpt>
        <trkpt lat="29.754558" lon="103.532276"><ele>444.9457</ele><time></time></trkpt>
        <trkpt lat="29.754528" lon="103.532321"><ele>443.36026</ele><time></time></trkpt>
        <trkpt lat="29.75449" lon="103.532356"><ele>442.05597</ele><time></time></trkpt>
        <trkpt lat="29.754466" lon="103.532409"><ele>441.02554</ele><time></time></trkpt>
        <trkpt lat="29.754459" lon="103.53247"><ele>439.54855</ele><time></time></trkpt>
        <trkpt lat="29.754458" lon="103.532527"><ele>437.9708</ele><time></time></trkpt>
        <trkpt lat="29.754461" lon="103.53259"><ele>437.40613</ele><time></time></trkpt>
        <trkpt lat="29.754481" lon="103.532648"><ele>435.98743</ele><time></time></trkpt>
        <trkpt lat="29.754503" lon="103.5327"><ele>434.22754</ele><time></time></trkpt>
        <trkpt lat="29.754528" lon="103.532753"><ele>432.74463</ele><time></time></trkpt>
        <trkpt lat="29.754558" lon="103.532797"><ele>431.62006</ele><time></time></trkpt>
        <trkpt lat="29.754592" lon="103.532844"><ele>431.05487</ele><time></time></trkpt>
        <trkpt lat="29.754624" lon="103.532894"><ele>431.12967</ele><time></time></trkpt>
        <trkpt lat="29.754663" lon="103.532927"><ele>434.05734</ele><time></time></trkpt>
        <trkpt lat="29.754666" lon="103.532982"><ele>432.83612</ele><time></time></trkpt>
        <trkpt lat="29.754643" lon="103.533031"><ele>432.92712</ele><time></time></trkpt>
        <trkpt lat="29.754627" lon="103.533085"><ele>432.4275</ele><time></time></trkpt>
        <trkpt lat="29.754606" lon="103.533144"><ele>431.2785</ele><time></time></trkpt>
        <trkpt lat="29.754583" lon="103.533208"><ele>431.55365</ele><time></time></trkpt>
        <trkpt lat="29.754556" lon="103.533258"><ele>431.39243</ele><time></time></trkpt>
        <trkpt lat="29.754529" lon="103.533304"><ele>432.88754</ele><time></time></trkpt>
        <trkpt lat="29.754494" lon="103.533353"><ele>433.2868</ele><time></time></trkpt>
        <trkpt lat="29.754463" lon="103.533395"><ele>432.8046</ele><time></time></trkpt>
        <trkpt lat="29.754436" lon="103.533448"><ele>432.36493</ele><time></time></trkpt>
        <trkpt lat="29.754419" lon="103.533504"><ele>431.67984</ele><time></time></trkpt>
        <trkpt lat="29.754406" lon="103.533561"><ele>431.8008</ele><time></time></trkpt>
        <trkpt lat="29.754404" lon="103.533614"><ele>431.30154</ele><time></time></trkpt>
        <trkpt lat="29.7544" lon="103.533667"><ele>430.23105</ele><time></time></trkpt>
        <trkpt lat="29.754393" lon="103.533724"><ele>432.93408</ele><time></time></trkpt>
        <trkpt lat="29.754417" lon="103.533773"><ele>433.15482</ele><time></time></trkpt>
        <trkpt lat="29.754416" lon="103.533833"><ele>432.28787</ele><time></time></trkpt>
        <trkpt lat="29.754418" lon="103.533892"><ele>432.1292</ele><time></time></trkpt>
        <trkpt lat="29.754407" lon="103.533946"><ele>430.72226</ele><time></time></trkpt>
        <trkpt lat="29.7544" lon="103.533999"><ele>431.3384</ele><time></time></trkpt>
        <trkpt lat="29.754384" lon="103.534057"><ele>432.10995</ele><time></time></trkpt>
        <trkpt lat="29.754377" lon="103.534109"><ele>431.96906</ele><time></time></trkpt>
        <trkpt lat="29.754361" lon="103.53416"><ele>431.472</ele><time></time></trkpt>
        <trkpt lat="29.754349" lon="103.534211"><ele>431.9234</ele><time></time></trkpt>
        <trkpt lat="29.754338" lon="103.534262"><ele>431.51654</ele><time></time></trkpt>
        <trkpt lat="29.754318" lon="103.534314"><ele>430.5974</ele><time></time></trkpt>
        <trkpt lat="29.754312" lon="103.534368"><ele>431.59186</ele><time></time></trkpt>
        <trkpt lat="29.754299" lon="103.534422"><ele>433.10925</ele><time></time></trkpt>
        <trkpt lat="29.754285" lon="103.534484"><ele>433.9795</ele><time></time></trkpt>
        <trkpt lat="29.754277" lon="103.534536"><ele>432.3758</ele><time></time></trkpt>
        <trkpt lat="29.754251" lon="103.534581"><ele>432.3834</ele><time></time></trkpt>
        <trkpt lat="29.754227" lon="103.534632"><ele>432.22614</ele><time></time></trkpt>
        <trkpt lat="29.754198" lon="103.53468"><ele>430.50034</ele><time></time></trkpt>
        <trkpt lat="29.754179" lon="103.534731"><ele>431.84314</ele><time></time></trkpt>
        <trkpt lat="29.754158" lon="103.534782"><ele>431.61902</ele><time></time></trkpt>
        <trkpt lat="29.754137" lon="103.534829"><ele>432.93042</ele><time></time></trkpt>
        <trkpt lat="29.754113" lon="103.534878"><ele>432.29642</ele><time></time></trkpt>
        <trkpt lat="29.754082" lon="103.534916"><ele>432.20163</ele><time></time></trkpt>
        <trkpt lat="29.75406" lon="103.534964"><ele>432.08716</ele><time></time></trkpt>
        <trkpt lat="29.754046" lon="103.535022"><ele>433.01535</ele><time></time></trkpt>
        <trkpt lat="29.754011" lon="103.535061"><ele>432.42798</ele><time></time></trkpt>
        <trkpt lat="29.753985" lon="103.53511"><ele>431.9734</ele><time></time></trkpt>
        <trkpt lat="29.753959" lon="103.535161"><ele>432.0315</ele><time></time></trkpt>
        <trkpt lat="29.753932" lon="103.535203"><ele>432.73837</ele><time></time></trkpt>
        <trkpt lat="29.753912" lon="103.535257"><ele>431.89886</ele><time></time></trkpt>
        <trkpt lat="29.753884" lon="103.535314"><ele>431.2102</ele><time></time></trkpt>
        <trkpt lat="29.753871" lon="103.535373"><ele>430.9444</ele><time></time></trkpt>
        <trkpt lat="29.753845" lon="103.535422"><ele>430.23718</ele><time></time></trkpt>
        <trkpt lat="29.753826" lon="103.535475"><ele>431.3595</ele><time></time></trkpt>
        <trkpt lat="29.753808" lon="103.535525"><ele>430.62503</ele><time></time></trkpt>
        <trkpt lat="29.753778" lon="103.53557"><ele>429.8682</ele><time></time></trkpt>
        <trkpt lat="29.753758" lon="103.535625"><ele>431.08417</ele><time></time></trkpt>
        <trkpt lat="29.753735" lon="103.535669"><ele>432.24893</ele><time></time></trkpt>
        <trkpt lat="29.753707" lon="103.535723"><ele>430.1402</ele><time></time></trkpt>
        <trkpt lat="29.753692" lon="103.535777"><ele>431.9046</ele><time></time></trkpt>
        <trkpt lat="29.753665" lon="103.535819"><ele>431.47925</ele><time></time></trkpt>
        <trkpt lat="29.753647" lon="103.535867"><ele>430.7782</ele><time></time></trkpt>
        <trkpt lat="29.75363" lon="103.535915"><ele>431.16022</ele><time></time></trkpt>
        <trkpt lat="29.753616" lon="103.535968"><ele>431.02377</ele><time></time></trkpt>
        <trkpt lat="29.753579" lon="103.536013"><ele>431.26974</ele><time></time></trkpt>
        <trkpt lat="29.753534" lon="103.536056"><ele>431.67593</ele><time></time></trkpt>
        <trkpt lat="29.7535" lon="103.536092"><ele>429.62274</ele><time></time></trkpt>
        <trkpt lat="29.753463" lon="103.536129"><ele>430.75156</ele><time></time></trkpt>
        <trkpt lat="29.753433" lon="103.536175"><ele>430.62357</ele><time></time></trkpt>
        <trkpt lat="29.753401" lon="103.536216"><ele>430.76767</ele><time></time></trkpt>
        <trkpt lat="29.753377" lon="103.536274"><ele>431.66504</ele><time></time></trkpt>
        <trkpt lat="29.753349" lon="103.536324"><ele>432.868</ele><time></time></trkpt>
        <trkpt lat="29.753313" lon="103.536366"><ele>432.59454</ele><time></time></trkpt>
        <trkpt lat="29.753298" lon="103.536418"><ele>433.57016</ele><time></time></trkpt>
        <trkpt lat="29.753267" lon="103.536459"><ele>432.8423</ele><time></time></trkpt>
        <trkpt lat="29.753235" lon="103.536509"><ele>432.4059</ele><time></time></trkpt>
        <trkpt lat="29.753203" lon="103.536549"><ele>431.80328</ele><time></time></trkpt>
        <trkpt lat="29.753169" lon="103.536605"><ele>432.4869</ele><time></time></trkpt>
        <trkpt lat="29.753145" lon="103.536652"><ele>431.1294</ele><time></time></trkpt>
        <trkpt lat="29.753105" lon="103.536689"><ele>431.73627</ele><time></time></trkpt>
        <trkpt lat="29.753069" lon="103.536733"><ele>430.77438</ele><time></time></trkpt>
        <trkpt lat="29.753032" lon="103.536768"><ele>430.65805</ele><time></time></trkpt>
        <trkpt lat="29.753001" lon="103.536807"><ele>430.42706</ele><time></time></trkpt>
        <trkpt lat="29.752977" lon="103.536852"><ele>430.47058</ele><time></time></trkpt>
        <trkpt lat="29.752945" lon="103.536895"><ele>429.8183</ele><time></time></trkpt>
        <trkpt lat="29.752918" lon="103.536943"><ele>429.8931</ele><time></time></trkpt>
        <trkpt lat="29.752902" lon="103.536992"><ele>430.0994</ele><time></time></trkpt>
        <trkpt lat="29.75288" lon="103.537046"><ele>428.87286</ele><time></time></trkpt>
        <trkpt lat="29.752855" lon="103.537091"><ele>428.62573</ele><time></time></trkpt>
        <trkpt lat="29.752827" lon="103.537137"><ele>427.1606</ele><time></time></trkpt>
        <trkpt lat="29.752789" lon="103.537183"><ele>427.0039</ele><time></time></trkpt>
      </trkseg>
      <trkseg>
        <trkpt lat="29.732969" lon="103.544112"><ele>387.55</ele><time></time></trkpt>
        <trkpt lat="29.732914" lon="103.544202"><ele>385.85</ele><time></time></trkpt>
        <trkpt lat="29.732876" lon="103.544304"><ele>384.01</ele><time></time></trkpt>
        <trkpt lat="29.732845" lon="103.544421"><ele>382.02</ele><time></time></trkpt>
        <trkpt lat="29.732819" lon="103.544542"><ele>380.46</ele><time></time></trkpt>
        <trkpt lat="29.732793" lon="103.544663"><ele>379.24</ele><time></time></trkpt>
        <trkpt lat="29.732761" lon="103.54478"><ele>378.34</ele><time></time></trkpt>
        <trkpt lat="29.73274" lon="103.544895"><ele>378.13</ele><time></time></trkpt>
        <trkpt lat="29.732719" lon="103.545004"><ele>377.21</ele><time></time></trkpt>
        <trkpt lat="29.732689" lon="103.545108"><ele>375.9</ele><time></time></trkpt>
        <trkpt lat="29.732663" lon="103.545209"><ele>375.1</ele><time></time></trkpt>
        <trkpt lat="29.732646" lon="103.545316"><ele>375.61</ele><time></time></trkpt>
        <trkpt lat="29.732625" lon="103.54542"><ele>375.91</ele><time></time></trkpt>
        <trkpt lat="29.732602" lon="103.545534"><ele>376.86</ele><time></time></trkpt>
        <trkpt lat="29.732584" lon="103.54564"><ele>376.38</ele><time></time></trkpt>
        <trkpt lat="29.732564" lon="103.545748"><ele>375.74</ele><time></time></trkpt>
        <trkpt lat="29.732548" lon="103.545857"><ele>375.37</ele><time></time></trkpt>
        <trkpt lat="29.73253" lon="103.545966"><ele>374.89</ele><time></time></trkpt>
        <trkpt lat="29.732502" lon="103.546069"><ele>374.52</ele><time></time></trkpt>
        <trkpt lat="29.732466" lon="103.546183"><ele>374.13</ele><time></time></trkpt>
        <trkpt lat="29.732437" lon="103.546289"><ele>372.82</ele><time></time></trkpt>
        <trkpt lat="29.732411" lon="103.546395"><ele>372</ele><time></time></trkpt>
        <trkpt lat="29.732375" lon="103.546493"><ele>371.74</ele><time></time></trkpt>
        <trkpt lat="29.732356" lon="103.546595"><ele>372.46</ele><time></time></trkpt>
        <trkpt lat="29.73237" lon="103.546701"><ele>372.57</ele><time></time></trkpt>
        <trkpt lat="29.732415" lon="103.546814"><ele>373.13</ele><time></time></trkpt>
        <trkpt lat="29.732455" lon="103.546916"><ele>372.4</ele><time></time></trkpt>
        <trkpt lat="29.732506" lon="103.54692"><ele>371.98</ele><time></time></trkpt>
        <trkpt lat="29.732498" lon="103.546996"><ele>371.09</ele><time></time></trkpt>
        <trkpt lat="29.732499" lon="103.54701"><ele>373.73</ele><time></time></trkpt>
        <trkpt lat="29.732493" lon="103.547136"><ele>375.86</ele><time></time></trkpt>
        <trkpt lat="29.732491" lon="103.547245"><ele>375.76</ele><time></time></trkpt>
        <trkpt lat="29.732437" lon="103.547338"><ele>375.36</ele><time></time></trkpt>
        <trkpt lat="29.732361" lon="103.547431"><ele>375.7</ele><time></time></trkpt>
        <trkpt lat="29.732307" lon="103.547526"><ele>377.23</ele><time></time></trkpt>
        <trkpt lat="29.732297" lon="103.547636"><ele>377.33</ele><time></time></trkpt>
        <trkpt lat="29.732299" lon="103.547744"><ele>375.48</ele><time></time></trkpt>
        <trkpt lat="29.732309" lon="103.547851"><ele>374.5</ele><time></time></trkpt>
        <trkpt lat="29.732334" lon="103.547955"><ele>374.26</ele><time></time></trkpt>
        <trkpt lat="29.73236" lon="103.548071"><ele>374.11</ele><time></time></trkpt>
        <trkpt lat="29.732337" lon="103.548185"><ele>374.23</ele><time></time></trkpt>
        <trkpt lat="29.732289" lon="103.548282"><ele>375.29</ele><time></time></trkpt>
        <trkpt lat="29.732284" lon="103.548397"><ele>376.21</ele><time></time></trkpt>
        <trkpt lat="29.732299" lon="103.548506"><ele>376.07</ele><time></time></trkpt>
        <trkpt lat="29.732322" lon="103.548627"><ele>375.85</ele><time></time></trkpt>
        <trkpt lat="29.732343" lon="103.548749"><ele>375.44</ele><time></time></trkpt>
        <trkpt lat="29.732368" lon="103.548877"><ele>375.01</ele><time></time></trkpt>
        <trkpt lat="29.732393" lon="103.549005"><ele>374.82</ele><time></time></trkpt>
        <trkpt lat="29.732433" lon="103.549101"><ele>374.54</ele><time></time></trkpt>
        <trkpt lat="29.732471" lon="103.549195"><ele>374.1</ele><time></time></trkpt>
        <trkpt lat="29.732516" lon="103.549292"><ele>373.83</ele><time></time></trkpt>
        <trkpt lat="29.732567" lon="103.549387"><ele>373.37</ele><time></time></trkpt>
        <trkpt lat="29.732613" lon="103.549484"><ele>373.6</ele><time></time></trkpt>
        <trkpt lat="29.732676" lon="103.549584"><ele>373.65</ele><time></time></trkpt>
        <trkpt lat="29.732678" lon="103.549706"><ele>373.89</ele><time></time></trkpt>
        <trkpt lat="29.732684" lon="103.549819"><ele>375.47</ele><time></time></trkpt>
        <trkpt lat="29.73262" lon="103.549897"><ele>375.83</ele><time></time></trkpt>
        <trkpt lat="29.732557" lon="103.549978"><ele>376.6</ele><time></time></trkpt>
        <trkpt lat="29.732579" lon="103.550069"><ele>377.69</ele><time></time></trkpt>
        <trkpt lat="29.732574" lon="103.550041"><ele>371.93</ele><time></time></trkpt>
        <trkpt lat="29.732574" lon="103.550041"><ele>371.93</ele><time></time></trkpt>
      </trkseg>
  </trk>
</gpx>